GFSSGP_700_rhum_000.txt.gz
RH
20 12 29 49 45 48 51 45 41 42 39 36 34 36 33 30 27 18 12 8 6 4 8 8 6 3 2 3 2 3 2 2 2 2 3 4 5 4 4 4 5 5 6 7 7 7 8 8 8
22 14 24 38 47 52 44 40 48 41 41 35 36 36 30 30 28 27 20 15 11 8 9 7 5 1 2 2 3 2 3 3 3 3 4 5 5 5 5 5 6 6 7 7 8 8 8 8 8
23 16 22 33 51 49 42 38 40 41 42 36 36 36 32 33 34 34 34 27 17 10 8 8 5 1 2 2 3 3 3 3 3 4 5 5 6 6 6 6 6 7 7 7 8 8 8 8 9
26 13 20 44 43 36 43 48 45 42 40 38 37 34 34 35 36 35 32 31 19 12 9 8 5 2 2 3 3 4 4 4 4 4 5 6 6 6 6 6 6 6 7 7 7 8 8 9 9
28 19 29 33 41 40 38 57 42 40 38 38 38 34 35 38 38 36 32 31 28 15 9 7 4 3 2 3 4 4 4 4 4 5 6 6 6 6 6 6 6 6 7 7 8 8 8 9 10
28 35 35 33 32 31 35 39 42 40 38 36 38 36 37 40 39 36 32 32 32 26 13 5 4 3 2 2 4 4 4 4 4 5 5 5 7 8 8 8 7 7 7 8 8 8 9 10 11
40 37 34 29 29 27 31 38 41 41 39 37 37 36 35 38 37 36 36 35 35 35 21 8 3 2 3 2 3 4 5 4 4 4 5 6 8 8 9 9 8 8 8 8 8 9 9 10 11
46 41 37 34 29 30 30 38 40 41 39 36 36 36 36 37 39 37 37 38 38 42 33 14 7 2 2 3 2 3 4 4 5 5 5 6 7 8 9 9 8 8 8 8 9 9 10 10 12
56 45 38 38 32 32 37 38 40 39 38 36 37 38 40 43 42 40 38 38 36 39 44 34 13 7 3 2 2 2 3 3 4 4 6 6 7 9 9 8 7 8 9 9 10 10 10 11 12
58 52 32 30 30 38 43 45 40 39 37 38 37 38 41 44 43 41 38 36 36 36 39 42 30 13 7 4 2 3 3 3 4 4 6 8 9 9 8 8 9 9 10 10 11 11 12 12 13
63 59 31 30 38 42 43 45 41 38 37 40 39 38 39 42 43 42 40 36 36 36 36 37 39 32 17 9 6 4 5 7 8 9 10 11 11 10 8 8 10 10 11 12 13 13 13 13 14
66 55 48 35 47 47 36 35 44 41 37 41 40 38 37 40 43 43 42 39 36 37 35 32 31 31 30 20 13 7 5 9 12 14 15 14 12 9 8 9 10 12 13 14 15 15 14 14 14
60 53 47 45 43 48 32 20 29 39 41 40 39 40 40 40 42 42 41 40 38 38 37 36 32 31 30 28 23 14 9 7 11 15 17 16 14 12 10 10 11 13 13 14 15 17 17 16 15
52 55 46 49 46 48 44 33 37 28 39 39 39 39 40 40 42 41 41 40 39 39 39 40 39 37 33 30 29 24 15 12 8 12 17 19 18 15 14 13 14 15 16 17 16 16 17 18 19
49 50 51 49 49 41 42 32 18 14 26 30 39 40 40 41 42 41 40 40 39 40 42 40 38 40 38 38 38 34 30 22 19 12 12 18 20 17 15 13 14 17 15 12 14 16 18 20 21
48 51 51 44 42 41 39 21 32 35 37 33 29 36 40 37 36 39 39 38 39 39 33 35 37 37 41 43 44 44 42 37 35 34 22 16 18 23 23 17 13 11 10 10 13 17 19 21 22
50 40 41 35 40 41 41 29 32 36 34 31 32 34 37 37 36 36 35 32 20 12 12 23 38 42 44 46 46 47 48 47 44 45 46 44 25 19 22 20 14 10 9 9 13 18 20 23 24
40 38 35 31 42 43 36 37 24 29 29 27 26 29 30 29 30 28 22 20 16 16 17 18 18 19 28 39 46 48 49 50 50 51 52 53 52 32 29 30 27 20 16 12 15 20 22 25 27
45 36 29 29 34 37 31 29 30 32 24 24 31 28 18 14 15 16 17 16 17 18 19 18 18 17 21 21 27 30 42 51 52 53 54 55 55 50 31 40 32 28 26 21 18 20 23 26 28
44 38 34 34 33 29 27 35 36 28 24 25 25 20 21 22 20 17 20 23 24 19 13 10 8 13 20 22 26 32 32 38 50 51 48 51 54 51 39 44 44 38 29 26 23 21 23 26 29
44 42 40 42 43 39 38 36 31 33 31 27 24 22 21 22 22 24 25 25 24 24 24 23 16 10 8 16 19 31 35 33 37 44 45 50 47 46 45 40 38 42 40 35 30 27 25 25 30
41 37 43 42 44 38 34 35 30 35 41 40 24 23 25 26 27 27 26 25 25 24 23 22 20 15 14 15 16 27 36 36 39 43 44 48 46 46 42 40 36 40 38 34 32 31 25 25 30
54 47 43 40 39 39 34 34 30 34 42 43 28 29 31 28 28 27 26 25 25 24 23 22 22 20 19 22 29 36 40 40 40 39 41 44 45 42 41 34 35 35 37 35 32 32 26 26 32
49 46 43 42 40 43 32 31 30 31 36 35 31 29 27 28 28 29 29 29 28 27 26 25 23 22 21 22 28 35 37 34 30 29 29 28 28 28 28 29 30 32 32 31 32 30 24 27 32
49 44 43 51 50 45 31 27 25 28 32 31 26 28 29 29 30 31 32 34 36 37 39 40 34 26 25 25 26 26 27 27 26 26 25 25 25 27 30 31 30 29 28 28 27 27 28 31 33
48 42 50 57 52 38 31 32 30 27 27 30 28 29 30 32 32 32 33 35 38 36 29 29 35 42 40 35 33 31 29 28 28 29 30 31 31 31 30 26 26 24 24 27 35 37 36 35 36
46 49 48 45 41 43 35 34 32 33 32 29 30 32 33 30 32 33 34 33 28 26 22 18 18 18 23 28 35 41 43 42 42 40 40 43 43 42 41 40 37 39 40 38 39 36 35 36 36
46 46 42 42 45 44 33 30 29 31 31 32 33 35 35 34 33 35 34 32 34 30 20 20 25 29 30 30 30 29 28 31 36 37 37 42 48 50 51 50 47 47 48 47 46 45 45 45 44
52 46 39 35 35 43 42 32 32 34 33 33 36 39 36 33 35 36 36 37 36 24 24 28 33 36 36 36 37 39 40 39 40 41 42 40 38 37 40 48 54 57 60 62 62 61 60 56 56
49 46 42 40 39 39 39 35 30 29 32 33 33 36 35 33 35 36 38 37 34 35 34 38 40 41 43 46 47 45 43 41 40 39 38 45 49 48 47 43 39 39 46 53 62 66 67 68 68

GFSSGP_700_rhum_003.txt.gz
RH
25 13 20 42 41 47 45 38 46 48 41 37 34 35 34 29 28 21 24 19 14 11 9 8 7 3 2 2 2 2 2 2 2 2 3 4 5 5 5 5 6 6 7 8 8 8 8 8 8
29 14 19 37 40 52 41 37 47 48 45 38 35 36 34 30 33 35 34 32 22 14 10 8 7 3 2 2 2 2 2 2 2 3 4 5 5 6 7 6 7 7 8 7 8 8 8 8 8
36 15 18 38 44 40 38 48 53 41 44 41 36 36 34 33 33 35 32 32 30 19 10 8 7 4 2 3 3 3 3 4 4 4 5 6 6 7 6 6 7 7 7 7 7 8 8 8 8
37 16 17 40 42 40 39 44 50 45 42 40 37 38 35 34 36 35 32 29 30 28 14 7 6 4 2 3 3 4 4 4 4 4 6 6 7 7 7 7 7 6 6 7 7 8 8 8 8
45 18 18 33 41 37 39 44 49 42 40 38 38 38 36 37 40 39 35 31 29 29 24 11 5 3 2 3 4 4 5 5 5 5 6 6 6 6 7 8 8 7 7 7 8 8 8 8 9
56 27 29 34 32 32 31 35 44 43 39 38 36 37 39 38 38 38 36 32 30 30 31 18 8 3 2 2 3 4 5 4 4 5 5 5 6 7 9 9 8 8 8 8 8 8 8 9 9
58 38 22 29 29 27 27 37 40 43 39 39 38 36 37 37 38 38 37 35 34 32 33 33 14 7 2 3 2 3 4 5 5 5 5 5 6 7 8 9 9 9 7 7 8 9 9 10 10
61 56 27 21 27 27 37 41 44 38 38 40 38 36 37 38 38 40 39 37 34 32 31 37 34 13 7 2 2 3 3 3 3 4 5 5 6 7 8 9 9 7 7 8 9 10 10 11 11
68 62 41 16 27 34 43 40 42 42 41 40 36 36 37 40 42 43 42 39 35 32 30 30 37 34 16 8 4 3 3 3 3 3 4 4 5 7 9 10 8 7 9 9 10 12 12 12 12
68 63 49 17 34 34 41 45 44 42 40 39 38 37 37 38 41 44 44 42 39 33 32 30 30 33 34 23 12 7 4 4 6 7 7 8 9 10 11 10 8 9 9 10 11 13 14 13 13
68 57 45 17 29 42 47 38 44 42 40 39 41 39 40 39 39 42 43 42 40 37 33 31 30 28 27 27 27 19 11 7 5 9 12 14 14 14 12 10 9 10 10 11 12 13 15 15 14
74 64 46 21 33 42 44 34 39 39 36 39 42 42 41 39 38 41 42 42 40 40 37 37 36 35 33 27 24 24 21 14 9 8 14 17 17 16 15 12 10 11 11 12 12 13 15 16 16
70 58 53 39 23 38 42 33 29 31 32 41 41 42 41 40 40 40 41 41 40 40 39 38 39 40 37 33 29 24 24 23 18 13 10 14 19 19 19 17 14 13 14 13 13 13 13 15 17
71 63 57 47 42 43 44 30 29 17 20 36 39 41 40 41 41 41 41 42 40 40 39 39 40 41 37 33 33 27 25 26 29 26 22 16 12 14 18 19 15 11 8 10 10 10 12 15 18
65 57 48 32 32 41 45 41 18 23 24 36 36 34 38 39 38 38 39 40 40 39 39 39 40 38 32 35 39 41 38 38 39 36 35 34 36 29 15 15 18 15 10 8 8 8 10 15 18
60 54 37 13 27 32 42 32 16 33 28 25 34 33 31 37 37 35 35 36 36 36 33 21 12 15 26 27 39 39 42 42 44 46 47 47 45 48 51 34 19 20 14 12 12 12 10 13 18
52 40 31 34 39 41 43 37 31 37 36 35 33 30 33 36 35 34 34 33 30 17 12 13 12 10 14 19 22 29 36 39 44 48 50 53 54 53 57 58 54 32 38 33 31 24 18 15 19
40 47 42 34 35 40 41 39 23 31 31 31 30 29 26 26 30 32 30 26 16 14 16 18 15 12 10 13 20 24 28 34 42 42 50 52 54 56 56 56 57 51 48 50 47 38 33 28 23
44 45 38 34 32 38 40 35 30 33 34 29 23 19 21 18 14 15 17 16 19 23 22 17 14 12 10 7 11 18 25 34 36 39 48 52 53 56 56 56 57 55 50 46 44 43 36 29 28
44 47 35 34 36 35 32 29 36 37 34 29 31 28 22 20 22 21 20 23 26 26 25 25 24 22 14 10 9 10 16 27 37 41 41 45 49 48 48 53 50 47 45 40 37 42 42 39 36
53 45 43 43 43 38 32 36 36 33 27 24 24 23 22 22 22 23 26 27 26 26 25 25 24 22 19 17 17 18 19 21 35 43 42 45 45 44 47 48 44 44 42 42 37 39 41 40 40
51 43 42 42 41 41 42 40 34 32 32 30 26 23 23 25 28 28 27 26 26 25 25 25 24 24 23 21 21 24 26 29 39 43 42 41 42 39 40 45 45 44 42 34 37 37 38 39 40
44 44 41 41 41 42 37 36 33 35 35 30 28 24 26 29 27 27 27 26 26 26 27 29 32 33 28 25 23 24 30 38 41 42 39 34 31 30 30 31 31 31 30 32 34 35 36 34 34
51 51 46 46 44 49 31 35 34 33 30 29 28 26 28 28 28 29 30 30 32 35 38 38 35 34 38 41 36 27 26 26 26 27 27 27 27 28 30 29 28 28 30 32 32 32 32 32 37
48 48 49 54 56 58 34 34 29 30 30 28 30 29 28 30 30 30 32 36 37 38 38 31 28 22 21 21 33 41 39 35 32 29 29 28 28 29 31 33 35 35 32 28 26 30 36 36 39
44 48 52 64 63 49 33 31 25 26 28 30 35 36 32 30 31 34 34 34 34 35 32 32 33 23 22 25 23 26 30 39 43 42 42 43 44 45 44 42 42 43 43 40 36 35 37 42 51
48 47 46 48 47 46 39 38 34 30 31 34 32 35 31 32 34 35 35 36 37 36 34 32 30 25 29 32 36 36 36 37 36 36 38 39 41 42 44 50 57 60 63 64 64 57 49 44 60
47 46 46 47 48 48 39 33 33 33 32 36 36 32 32 32 36 36 36 37 35 34 34 32 32 36 39 40 42 44 44 44 44 42 41 40 39 38 38 39 40 39 38 39 46 54 62 68 68
48 45 42 39 37 52 53 38 34 33 33 33 34 33 34 38 40 40 38 38 38 40 40 37 40 45 46 46 48 50 51 50 48 45 42 41 39 37 34 32 31 35 39 38 38 37 37 47 56
54 51 46 40 43 40 40 36 34 33 34 35 37 38 42 42 43 44 45 45 43 44 44 44 47 51 52 56 58 60 59 56 53 51 50 48 46 43 40 36 34 33 34 34 30 27 28 27 31

GFSSGP_700_rhum_006.txt.gz
RH
30 15 14 37 36 42 42 44 48 50 47 37 36 35 35 32 28 25 28 30 27 19 12 9 8 6 2 2 2 2 2 2 2 2 3 4 6 6 6 6 6 7 8 8 8 8 8 9 9
32 18 16 32 40 43 39 51 52 43 48 42 37 35 36 32 31 31 31 30 31 27 16 9 8 6 2 3 2 2 2 2 3 3 4 6 7 7 6 7 8 8 8 7 7 7 8 8 8
36 22 17 30 43 40 40 49 52 47 45 41 40 36 36 34 34 32 31 30 28 29 26 12 6 5 3 3 3 3 3 3 4 4 5 6 6 6 6 7 8 7 7 7 7 7 8 8 8
41 24 16 32 41 40 36 44 43 46 44 42 42 37 37 35 36 37 35 32 30 29 28 22 9 4 3 2 4 4 4 4 4 5 6 7 6 6 7 7 7 8 7 8 8 8 8 8 8
48 28 14 26 35 39 44 40 46 49 41 39 36 39 38 37 38 37 35 34 32 31 29 30 16 5 2 2 3 4 5 4 5 5 5 6 6 6 6 8 9 8 8 8 8 8 8 9 9
55 39 18 20 27 36 36 30 39 47 42 39 38 37 38 40 38 37 36 35 34 32 30 30 30 13 4 2 2 3 4 5 4 4 5 5 5 6 8 8 9 9 9 8 8 8 9 10 10
57 47 35 19 24 30 39 42 39 35 44 42 40 39 38 38 39 38 40 39 37 33 30 29 30 33 12 4 2 3 3 3 4 5 5 5 5 6 7 8 9 9 9 8 8 9 10 11 12
60 55 42 23 20 28 44 45 46 46 46 40 40 39 37 38 38 41 42 41 40 37 32 30 29 34 34 15 7 3 3 3 3 3 4 4 5 6 7 8 10 9 8 8 9 10 11 12 13
65 62 45 34 17 24 34 43 47 44 43 42 41 38 36 36 37 40 42 42 43 40 36 32 31 29 30 32 26 14 8 5 5 6 6 6 6 7 9 10 10 10 10 10 10 11 12 14 14
71 64 49 42 22 30 31 35 44 43 42 41 40 40 38 37 38 38 40 42 43 42 40 37 34 34 32 29 27 26 22 14 8 7 9 11 11 12 13 13 12 11 10 10 11 11 12 14 15
68 63 58 36 33 26 30 32 42 45 42 42 40 38 39 39 40 39 39 41 42 42 41 40 38 38 38 37 34 28 25 23 18 12 8 11 15 17 16 15 14 12 10 10 11 12 13 14 15
68 65 61 41 31 28 34 32 33 41 41 41 41 40 40 41 41 40 40 40 41 42 41 40 40 39 40 40 38 33 29 26 24 24 19 14 11 15 19 20 20 18 13 11 12 14 14 13 15
77 66 63 50 29 25 35 26 25 29 37 37 40 38 40 41 41 41 41 41 41 42 41 39 40 40 40 40 39 33 27 26 26 29 30 29 27 23 16 14 16 18 17 14 12 14 16 16 15
74 70 66 56 35 23 27 19 14 12 21 28 32 38 40 40 41 41 41 42 42 41 39 39 39 39 39 36 36 36 31 35 35 35 38 37 39 39 41 39 26 19 20 17 14 13 13 12 13
77 73 66 54 37 30 37 17 12 11 20 25 37 37 34 32 35 38 39 38 37 37 38 38 36 26 14 12 22 33 36 38 44 45 46 47 49 49 46 47 54 57 47 28 35 38 30 26 22
79 67 60 35 16 17 38 18 21 28 32 25 28 32 31 26 27 24 29 32 34 35 32 23 14 12 11 12 18 24 30 43 47 48 49 50 51 54 55 56 56 56 56 57 41 49 49 42 35
63 62 46 29 28 35 39 24 30 35 38 39 37 35 34 31 31 32 33 34 33 25 13 15 17 16 16 14 13 15 22 28 37 49 52 51 50 51 52 51 51 51 51 52 56 50 48 47 44
70 58 44 40 36 36 39 32 32 31 36 34 33 32 30 29 26 28 29 25 16 16 19 22 21 20 19 18 12 12 18 29 35 44 53 53 51 49 48 49 53 53 54 56 55 53 50 44 41
69 49 42 37 33 33 36 40 36 29 31 32 32 30 25 26 28 23 19 18 21 25 25 25 25 25 25 22 16 18 19 20 27 37 41 45 48 48 50 54 52 48 50 54 49 47 45 41 38
75 50 42 38 40 41 40 36 32 29 32 34 35 30 30 30 25 22 21 23 26 26 26 26 26 25 24 23 20 18 22 25 28 31 35 45 46 44 44 47 45 46 48 49 45 45 43 42 40
65 45 48 46 44 42 40 35 35 34 35 36 28 26 27 23 22 23 25 28 28 27 26 26 25 25 26 25 24 23 25 28 33 35 35 41 45 44 44 44 42 39 40 46 46 46 44 41 36
51 51 48 44 46 41 42 43 36 34 35 30 26 25 24 23 25 29 29 27 27 27 27 28 32 35 31 28 30 34 34 29 25 25 30 34 38 37 35 33 31 30 31 32 34 33 32 31 32
50 52 49 42 44 43 39 43 36 36 34 32 30 27 24 26 30 28 28 29 29 30 31 33 36 31 29 24 20 21 24 31 36 32 28 26 26 26 26 25 25 25 26 26 27 29 33 35 36
53 47 48 48 47 52 35 38 34 30 22 31 32 29 26 29 30 30 32 32 33 34 34 36 35 31 29 26 22 24 32 38 39 38 36 35 35 35 36 36 36 36 36 35 33 33 32 35 61
47 54 52 55 58 60 37 40 27 30 27 28 30 30 29 30 31 32 33 35 35 36 37 36 33 27 25 26 27 30 31 30 32 36 39 42 43 44 46 48 50 51 51 50 48 46 45 46 69
47 51 49 64 70 53 36 35 30 27 28 30 34 36 36 35 33 35 38 38 38 38 33 31 38 38 36 36 38 39 39 40 40 41 41 41 41 41 41 42 42 43 44 46 50 54 60 62 60
46 47 47 50 52 51 41 38 35 33 29 32 33 33 37 40 36 39 39 38 36 33 37 42 43 42 41 42 44 44 45 46 47 47 48 46 45 43 41 39 38 37 36 35 38 45 48 48 48
46 44 48 50 54 53 44 38 35 32 32 32 32 35 37 36 37 42 44 41 38 41 44 47 45 48 48 47 49 50 51 54 56 58 57 54 51 49 47 46 44 43 41 38 35 32 32 37 38
49 48 46 44 41 55 55 39 34 31 32 32 34 36 37 38 44 46 44 42 44 52 53 49 49 52 52 54 55 57 60 61 62 61 58 56 56 54 51 48 46 44 42 39 36 35 36 35 32
51 48 46 40 43 42 42 37 34 32 34 36 37 41 42 46 50 46 42 49 57 54 52 52 53 55 58 60 62 61 62 64 66 65 62 59 58 56 51 47 44 42 39 36 33 31 31 35 35

GFSSGP_700_rhum_009.txt.gz
RH
42 19 11 30 32 38 44 46 49 48 48 39 36 36 35 36 31 28 32 31 30 29 26 14 8 7 5 2 2 2 2 2 2 2 2 3 5 5 5 5 5 5 6 8 8 8 8 8 9
45 23 13 27 34 43 39 50 49 45 45 47 39 38 36 35 33 33 34 32 29 28 28 23 10 5 4 2 3 3 2 2 2 3 3 4 6 5 6 6 7 7 7 7 7 7 8 8 8
46 31 15 25 38 41 39 50 48 45 45 42 42 42 37 36 35 36 36 34 31 29 28 28 16 6 3 2 3 4 4 4 4 4 4 6 6 6 6 7 7 7 7 7 8 8 8 8 8
46 40 16 23 39 43 38 44 44 49 46 44 44 42 39 37 36 38 37 34 33 31 30 28 28 12 3 3 3 4 4 4 4 4 4 6 7 7 7 7 7 8 9 8 9 8 8 8 9
46 48 21 16 27 38 42 40 40 46 47 44 36 38 39 38 38 38 36 36 34 32 31 29 30 27 9 3 3 3 4 5 4 5 5 5 6 6 6 7 9 9 9 9 9 8 8 9 10
51 53 38 17 18 31 36 37 32 43 48 48 40 37 38 39 40 39 39 40 39 36 32 29 29 34 23 8 3 3 3 4 5 5 5 5 5 6 6 7 8 8 9 10 8 8 9 10 11
54 57 55 33 16 25 39 45 37 42 44 42 42 37 38 37 38 39 41 42 40 41 37 31 30 31 35 26 10 4 3 3 3 3 4 5 5 6 6 7 8 8 10 9 8 9 10 11 12
57 60 58 46 23 22 39 48 42 41 41 45 43 40 39 37 37 38 40 42 41 42 40 36 32 30 29 31 29 20 11 6 5 5 5 5 5 5 6 7 9 10 10 9 9 10 11 12 13
61 66 58 53 30 18 31 44 46 41 45 44 43 38 36 37 36 37 38 39 40 42 41 40 38 36 36 33 30 27 26 21 13 8 8 9 9 9 10 11 12 12 11 10 10 11 12 13 14
66 62 59 57 42 25 25 35 44 45 44 43 43 42 41 40 39 38 39 40 41 41 41 42 40 39 39 39 38 34 29 26 24 20 13 11 14 15 16 16 16 15 13 11 10 11 12 14 15
70 58 58 61 54 39 18 30 33 41 44 44 42 42 39 38 39 38 39 40 41 41 41 42 41 40 40 40 41 40 35 30 26 25 25 21 16 14 17 19 21 21 20 18 14 15 16 17 16
77 61 57 59 61 43 19 23 29 34 37 41 39 38 39 37 38 39 41 40 41 42 42 42 41 39 38 40 40 41 40 35 31 29 29 30 30 30 27 22 17 17 20 22 19 15 15 18 20
80 66 59 66 62 47 27 16 25 25 31 35 39 38 37 36 38 40 41 42 42 41 40 40 39 38 39 39 39 40 42 42 42 39 39 41 41 42 42 44 47 43 28 21 20 18 19 18 18
76 73 69 66 59 54 35 19 20 13 16 16 31 36 35 38 40 41 41 42 42 42 41 40 40 39 33 20 18 34 43 47 46 46 47 47 49 52 53 50 50 57 56 57 52 43 42 47 43
80 83 77 58 56 57 46 24 11 16 15 15 21 30 29 34 36 36 37 39 39 38 37 37 35 28 17 15 15 17 40 52 52 48 47 49 50 52 54 54 55 55 55 54 53 53 55 48 49
88 88 81 53 49 29 21 13 21 26 25 23 20 22 28 32 30 31 31 33 35 36 36 34 26 18 20 19 18 18 21 25 31 45 50 46 46 47 50 53 54 54 52 51 51 52 53 55 54
88 78 69 59 34 32 20 11 23 32 36 34 25 25 32 33 33 30 29 30 30 27 19 17 17 20 20 19 19 17 20 24 33 38 42 52 57 52 49 49 49 50 52 54 53 53 57 57 53
89 75 68 59 36 40 40 29 32 33 35 38 38 37 35 33 31 29 28 27 20 17 22 25 25 23 21 21 21 20 20 24 25 30 38 45 50 53 52 48 46 46 50 52 48 48 52 55 47
84 70 64 45 40 40 34 34 34 34 32 32 36 33 32 31 29 29 29 22 19 24 26 26 26 26 25 24 23 22 22 22 27 30 29 29 34 40 45 45 44 44 45 45 44 43 49 51 48
88 75 62 44 42 43 37 38 37 37 31 30 32 30 32 30 31 31 24 22 25 27 28 27 26 26 25 27 28 28 28 27 27 26 27 30 31 35 38 42 42 42 42 43 44 44 41 44 48
89 83 72 52 46 46 45 40 35 34 30 32 33 35 31 31 32 25 25 27 29 29 28 27 27 28 30 28 22 21 19 18 19 23 27 28 28 29 34 38 38 37 37 34 34 33 35 36 38
88 70 72 49 55 48 45 49 38 29 32 34 34 28 28 28 27 26 29 30 29 30 30 31 32 33 30 24 23 17 16 17 19 23 30 33 32 31 31 31 31 31 32 31 31 31 31 30 30
74 73 51 53 52 47 45 44 38 35 34 31 32 31 29 26 27 30 30 30 33 34 34 34 34 34 32 28 24 23 24 25 27 32 37 39 40 40 40 41 42 42 43 45 45 44 43 42 42
74 55 54 51 49 57 43 41 33 33 24 32 33 33 31 27 29 32 31 34 35 35 34 37 35 31 30 33 34 33 32 33 34 35 36 38 39 40 41 42 44 45 45 45 45 46 48 52 56
56 59 57 60 62 66 38 45 27 26 24 29 30 32 31 29 32 33 34 35 37 37 37 35 36 39 40 39 41 40 39 40 41 42 43 43 44 44 44 44 44 43 41 41 40 40 40 42 44
57 56 52 64 72 56 44 40 27 29 27 29 32 36 36 34 35 36 37 39 38 37 38 42 46 47 45 46 47 48 49 50 50 51 53 54 54 53 51 50 49 47 46 45 45 44 42 40 38
58 52 51 52 56 60 43 36 31 31 28 25 31 34 38 40 42 38 40 40 40 41 47 54 52 49 48 50 52 54 55 56 58 58 58 57 57 56 56 54 52 50 50 50 48 46 44 43 42
51 47 51 51 62 60 48 41 36 34 34 32 30 32 40 44 40 42 43 42 44 49 55 54 51 51 52 54 56 59 62 62 62 64 65 64 61 59 55 52 50 50 51 50 47 45 43 42 41
51 49 48 48 51 57 60 40 36 33 32 32 33 37 44 40 40 43 45 46 49 58 56 52 50 52 57 63 67 70 69 68 69 68 67 63 62 60 56 54 54 52 49 45 41 36 30 27 26
52 49 48 44 46 44 45 39 35 33 32 34 40 45 42 42 44 46 47 48 60 60 58 57 56 58 63 67 66 67 71 76 80 77 68 63 63 62 59 54 48 39 27 16 9 7 5 3 1

GFSSGP_700_rhum_012.txt.gz
RH
42 44 15 19 28 28 38 43 44 47 49 43 38 37 36 36 34 33 34 34 31 29 28 26 15 6 4 3 3 3 3 3 2 3 3 3 4 5 5 5 5 6 6 7 8 7 8 8 9
40 47 18 19 33 43 36 40 46 44 46 47 44 40 39 36 35 35 37 36 32 30 28 29 24 10 3 3 3 3 3 3 3 3 3 4 5 5 6 7 7 7 7 7 7 7 8 8 8
41 46 25 19 32 38 37 49 51 47 44 46 45 43 42 37 37 36 39 36 33 32 30 30 31 19 5 3 3 4 4 4 4 4 4 5 5 6 6 7 7 7 8 8 8 8 8 8 8
42 46 36 15 34 42 38 52 51 48 48 46 45 43 40 38 38 38 38 37 35 32 31 30 32 31 12 3 3 4 5 5 5 5 5 5 6 7 7 7 7 9 10 9 9 9 8 8 9
45 47 46 21 16 32 44 42 43 44 48 47 42 38 39 39 39 40 39 40 39 38 34 31 31 34 28 9 3 3 4 5 5 5 5 5 5 6 6 7 8 9 9 9 10 9 8 9 10
49 50 52 48 22 20 35 39 40 38 46 49 45 39 38 38 38 39 40 42 40 41 39 33 31 31 34 30 13 4 3 3 3 4 5 5 5 6 6 6 7 8 8 10 10 8 8 9 10
50 52 54 54 42 17 32 46 41 36 41 45 44 41 40 39 38 38 39 41 41 42 42 39 34 32 30 30 30 24 14 7 5 5 4 4 4 5 6 6 7 8 9 10 10 8 9 10 11
54 57 56 55 50 22 28 44 47 39 43 44 44 42 41 39 38 37 37 38 40 42 43 42 40 38 38 36 31 28 26 23 17 10 8 8 8 8 8 8 10 11 11 11 11 10 10 11 12
60 63 57 56 54 40 24 35 46 45 42 42 44 43 41 38 38 37 37 38 40 41 42 43 42 41 40 40 40 39 34 28 24 22 18 12 10 13 14 14 15 15 14 13 12 12 12 13 13
63 61 55 55 59 59 33 26 40 44 44 44 44 44 42 42 41 40 39 39 40 41 42 42 42 41 40 40 40 42 41 38 30 26 25 23 17 14 16 17 19 20 20 20 18 16 14 14 15
68 66 53 54 60 63 38 20 27 42 45 46 44 44 43 41 39 39 39 40 40 41 42 41 41 40 39 38 39 40 42 42 37 32 31 32 30 26 22 18 16 16 16 18 19 19 16 14 15
71 64 58 54 59 62 54 39 18 28 38 44 45 44 42 38 40 41 42 41 41 41 42 41 42 40 37 39 39 40 41 43 44 40 38 41 40 40 40 40 43 40 32 24 22 22 20 18 17
74 66 61 60 60 58 62 47 36 19 27 33 36 37 38 37 39 41 42 41 42 42 42 42 41 41 40 39 33 32 40 44 47 46 46 47 49 50 50 50 48 51 54 56 56 53 49 43 40
76 70 63 65 57 61 60 53 59 14 14 22 25 24 27 35 37 41 41 41 41 40 40 38 38 38 35 28 19 19 23 42 48 49 46 47 49 51 53 55 56 57 58 57 57 56 55 54 54
85 79 78 63 54 53 60 49 26 20 15 14 16 14 15 30 34 39 40 37 36 38 38 37 37 36 31 23 21 19 16 20 30 44 51 46 44 45 47 51 54 56 56 56 54 54 54 54 55
90 90 86 59 55 58 54 34 16 24 12 18 26 18 21 29 33 36 31 30 33 36 36 36 35 28 23 22 24 25 23 21 24 29 35 49 54 52 46 46 46 47 48 48 48 51 52 52 51
86 90 85 68 60 49 39 26 21 20 24 30 37 32 26 32 34 29 29 29 27 25 23 18 16 17 20 22 23 23 24 26 32 34 37 43 43 41 42 46 46 46 45 45 44 44 49 48 44
81 86 85 64 61 46 39 33 26 36 37 38 38 38 36 32 31 32 30 27 24 20 19 25 26 26 25 24 24 24 23 26 30 33 30 28 28 29 29 32 36 42 44 44 45 46 49 48 45
77 80 77 65 57 46 39 36 28 31 36 33 34 34 37 35 31 29 26 26 24 21 26 26 27 27 26 25 26 28 28 28 28 28 28 30 34 38 39 39 39 45 47 48 49 48 47 45 47
81 92 83 66 60 48 44 38 32 31 31 29 30 33 32 33 31 30 32 27 26 27 28 28 27 28 30 30 25 23 20 19 19 21 25 29 32 33 33 34 35 37 36 36 35 33 33 32 32
87 94 81 70 62 56 44 36 27 28 29 28 30 33 35 36 32 32 29 27 29 30 29 30 32 32 32 30 27 26 23 20 19 20 23 27 30 32 35 36 36 37 37 38 38 39 41 41 42
97 68 79 77 82 54 49 54 38 24 27 30 35 35 35 33 33 29 28 30 32 33 33 33 32 32 32 30 26 25 29 30 28 29 30 31 32 33 33 34 35 36 37 37 38 38 39 39 40
85 72 85 85 59 54 51 50 37 28 23 27 28 35 33 33 32 30 32 33 36 34 35 36 35 32 28 29 33 36 37 38 38 37 38 38 39 40 42 43 45 47 48 48 47 46 44 43 42
86 97 71 60 54 61 46 48 35 25 32 32 32 35 36 36 32 34 36 36 35 38 38 36 34 33 35 39 41 42 44 45 45 45 46 47 49 51 53 54 54 53 52 51 50 49 49 50 49
100 96 64 65 66 70 42 45 31 20 29 30 33 35 36 37 34 37 37 35 38 38 39 39 39 44 47 45 46 48 49 50 50 52 53 53 53 53 52 53 52 52 52 52 51 50 51 52 53
98 89 56 68 74 60 47 45 23 25 25 26 28 36 37 39 35 38 36 38 39 41 43 44 49 51 50 50 50 50 50 53 55 57 58 59 61 59 57 56 55 54 53 51 49 49 50 51 52
94 89 57 56 63 66 51 39 31 29 31 28 30 33 37 40 40 40 38 40 44 46 47 54 53 52 50 49 49 51 53 58 65 68 70 70 68 64 58 54 54 54 55 54 52 50 49 47 44
74 60 60 55 64 68 55 44 38 37 36 35 27 32 38 42 44 42 41 44 46 48 59 60 56 56 56 55 56 56 56 59 64 66 65 63 56 51 52 54 55 55 55 52 47 40 31 23 17
71 58 55 51 52 61 63 39 36 35 33 33 32 37 42 46 48 42 43 46 49 53 68 63 61 61 62 62 62 65 69 71 65 60 60 52 47 50 52 54 55 56 55 45 32 20 15 14 13
56 55 52 49 53 51 50 45 37 35 33 34 37 44 48 50 44 45 47 51 48 63 70 66 65 65 64 64 69 72 66 68 72 63 56 44 48 53 57 59 60 54 41 25 16 14 13 13 12

GFSSGP_700_rhum_015.txt.gz
RH
40 43 44 13 23 25 25 29 39 45 51 46 43 41 37 37 36 34 36 37 33 31 30 29 27 11 3 3 3 3 3 3 3 3 2 3 4 5 6 5 5 6 7 8 8 7 8 8 8
42 41 45 15 27 36 29 29 50 45 46 47 41 40 41 39 36 37 40 37 34 32 31 30 31 20 4 3 4 4 4 4 3 3 3 4 5 6 6 6 7 7 8 8 8 8 8 8 8
45 43 44 16 28 31 32 39 52 46 43 44 46 44 42 39 38 37 38 37 36 34 31 30 31 30 11 3 3 4 5 4 4 4 4 6 6 6 6 7 7 7 8 9 9 9 9 8 8
46 46 48 23 24 41 35 53 55 49 47 44 45 45 42 40 39 39 39 41 40 40 36 31 30 33 27 7 3 3 4 5 5 5 5 5 6 6 7 7 7 8 10 10 10 10 9 8 8
48 47 49 41 25 18 45 45 50 48 47 49 46 42 39 39 39 40 40 42 42 41 40 35 31 30 32 27 10 4 3 4 4 5 5 5 5 6 6 6 7 8 8 9 9 10 9 8 9
49 50 51 52 46 18 28 40 41 38 43 46 47 41 38 38 38 38 40 41 41 41 42 41 36 33 31 30 28 21 11 6 4 4 4 4 5 5 6 6 7 7 8 8 10 10 9 8 9
51 51 51 52 52 29 20 40 44 40 38 41 48 41 40 40 39 38 39 39 38 41 43 42 41 39 38 37 31 28 26 23 16 10 7 7 6 6 6 6 7 7 8 10 10 10 10 10 10
55 54 52 53 54 43 25 34 43 44 41 42 45 43 43 41 39 38 37 37 38 40 43 43 42 41 41 40 40 40 36 29 24 22 18 12 10 10 10 10 10 11 12 12 12 11 10 10 10
60 60 55 53 55 56 40 28 34 46 40 44 43 44 43 42 39 38 37 38 41 40 42 42 42 42 41 40 40 41 42 41 34 27 24 21 17 14 13 14 15 16 16 16 16 15 13 12 12
66 62 56 53 55 60 56 34 31 42 43 45 43 43 43 42 41 42 41 42 41 40 42 42 42 42 40 39 39 40 41 42 41 35 28 26 25 22 19 18 19 20 20 20 21 21 20 18 17
69 64 56 50 57 60 59 46 28 36 42 45 46 44 44 44 43 42 41 42 40 40 41 42 41 41 40 38 38 39 40 42 43 42 36 35 36 34 32 32 31 28 25 23 20 21 23 22 20
72 69 59 50 58 61 58 55 33 25 36 40 45 46 45 44 43 40 41 42 42 41 41 42 42 42 41 40 38 39 39 41 44 45 44 43 45 46 45 44 45 48 51 53 52 49 45 40 37
77 73 63 55 60 60 59 54 58 32 25 29 36 42 44 44 42 38 40 41 42 42 41 42 41 41 40 39 38 31 22 31 42 46 46 45 48 50 52 54 55 56 56 55 55 55 56 56 55
77 77 69 65 62 62 58 52 57 27 30 24 20 28 32 35 32 34 37 41 41 41 41 39 38 37 37 36 32 24 19 18 34 45 48 46 44 46 49 51 54 56 57 56 55 54 51 49 49
89 87 74 67 60 57 54 47 46 44 32 18 16 16 21 26 23 21 36 40 40 37 36 37 36 37 37 36 30 24 25 24 25 38 46 51 49 45 44 44 46 48 49 47 45 44 42 43 47
94 94 88 67 63 53 57 40 43 27 13 18 17 20 18 14 13 23 33 37 33 33 33 32 33 34 32 31 25 25 28 30 29 28 30 31 33 33 32 32 39 45 48 51 52 50 48 45 43
88 86 85 73 56 59 60 43 40 30 32 30 40 38 27 22 24 36 36 33 32 29 24 21 18 19 20 21 22 24 24 26 28 28 28 28 32 33 35 40 45 47 49 53 51 51 51 48 47
83 84 91 77 62 64 58 46 38 31 36 39 40 39 37 33 32 35 35 32 29 24 20 21 26 27 26 25 25 24 25 25 26 27 29 35 41 45 47 48 48 47 46 46 47 46 45 42 36
80 80 67 56 68 72 58 46 38 29 31 34 37 36 36 38 37 36 33 28 25 24 24 27 28 28 27 28 29 28 25 22 24 28 33 37 39 40 41 39 37 36 36 35 36 36 36 37 39
85 80 79 69 68 74 64 47 38 33 26 31 35 33 32 33 34 35 32 31 28 27 29 29 29 31 32 31 28 25 25 24 22 20 22 27 30 33 35 36 36 37 37 37 36 36 35 35 36
89 80 77 80 76 73 70 50 36 30 25 22 27 34 30 32 34 35 33 31 30 32 31 32 32 32 32 32 29 26 24 26 29 29 29 30 32 33 35 37 38 40 41 41 42 42 43 43 43
84 86 76 83 90 83 70 57 42 34 24 20 25 36 31 35 36 34 33 31 34 37 35 34 33 32 29 24 26 32 36 38 39 39 39 39 40 42 43 45 48 49 50 50 51 51 51 51 51
97 85 84 88 90 81 63 54 45 35 26 26 32 39 35 36 32 34 33 36 39 37 38 37 33 28 26 29 38 40 41 42 44 45 46 47 48 50 53 54 54 53 53 52 52 51 51 51 50
89 90 98 92 83 61 55 52 38 20 34 28 34 34 36 33 33 33 37 39 38 40 39 37 35 33 34 41 45 45 46 47 46 48 50 51 53 55 56 55 52 48 44 41 40 42 46 48 49
96 95 98 82 64 64 50 51 33 25 28 30 34 32 35 36 34 34 40 41 41 41 42 41 38 37 42 48 47 45 44 42 42 44 46 50 54 51 44 41 38 33 31 35 41 45 46 48 50
100 81 72 70 71 58 54 50 25 32 30 34 30 37 37 38 36 35 40 42 44 46 46 44 43 46 48 52 52 52 52 52 51 50 51 50 46 41 35 25 27 35 41 43 45 46 47 47 46
100 99 74 61 66 64 52 44 37 37 34 32 31 32 36 39 39 39 42 43 45 49 48 48 50 53 55 57 58 58 56 53 56 53 51 50 47 45 29 35 41 43 43 44 44 44 45 44 39
91 87 94 65 65 69 58 50 42 39 36 36 33 32 36 40 42 42 44 45 47 50 50 51 62 61 61 63 62 58 55 51 54 56 57 57 62 66 40 46 49 49 48 46 46 45 36 28 21
99 90 97 62 56 61 58 39 38 37 35 34 33 34 37 41 45 47 47 48 49 52 51 59 69 68 67 66 63 58 50 53 58 54 50 52 52 45 46 50 51 52 53 49 41 34 31 30 27
86 73 77 56 59 54 53 45 36 32 35 32 34 35 41 48 51 52 50 52 53 49 59 66 72 76 73 68 64 58 60 67 68 67 58 44 42 46 50 54 58 59 54 45 39 35 24 13 12

GFSSGP_700_rhum_021.txt.gz
RH
42 42 42 35 40 32 27 26 42 50 52 46 45 38 38 37 36 37 36 37 35 34 32 29 28 28 21 4 4 4 3 2 2 3 3 2 3 4 6 6 6 6 6 6 7 9 9 8 9
44 44 45 43 31 27 21 26 40 46 49 47 44 41 38 37 38 36 38 38 39 38 37 33 29 29 28 10 3 5 5 4 3 3 3 3 4 5 6 6 6 7 8 8 8 9 9 9 9
44 44 46 46 35 25 28 36 34 47 36 43 46 43 38 38 37 37 39 40 40 38 38 36 32 30 30 21 4 4 5 5 5 4 4 5 5 6 6 7 7 8 8 8 8 9 10 10 10
44 52 47 47 37 28 33 46 48 44 46 39 44 44 42 42 39 38 39 42 43 41 39 39 37 33 30 29 19 5 4 5 5 5 5 5 6 6 7 7 8 8 8 8 9 10 10 10 10
45 53 48 43 41 34 22 34 40 42 47 40 38 45 44 40 38 39 39 41 44 41 41 41 40 39 36 32 28 25 16 7 4 4 5 5 5 6 6 6 7 7 7 8 9 9 9 9 9
57 59 48 38 39 42 40 28 35 43 47 47 45 46 45 45 38 38 38 39 43 39 40 42 42 41 40 39 38 33 27 24 20 13 8 5 4 4 5 6 6 7 7 8 8 8 9 9 10
56 59 52 40 36 45 47 29 34 41 45 44 45 44 45 43 39 38 38 38 42 38 39 42 42 42 42 41 41 41 40 39 34 27 22 18 14 9 7 7 7 7 7 8 8 9 11 11 12
74 63 58 49 43 41 49 41 33 38 42 45 41 43 46 46 40 38 38 38 40 39 39 40 41 42 42 41 40 40 40 40 41 40 37 29 23 19 15 12 12 12 12 13 14 15 14 14 14
63 65 56 49 47 43 50 52 47 34 36 41 37 42 48 44 43 41 39 38 38 38 40 40 40 42 42 41 40 39 38 40 40 40 41 39 32 26 22 20 18 18 18 19 19 18 19 18 18
83 68 56 50 48 48 50 59 61 34 45 50 48 43 46 44 42 40 38 38 38 40 41 41 40 41 41 41 40 38 37 37 40 41 40 38 36 32 28 27 27 27 26 26 27 28 29 29 29
88 73 61 56 55 59 58 61 59 57 29 45 50 48 52 50 43 42 41 41 42 41 40 41 40 40 41 42 40 39 38 37 40 41 40 39 37 36 35 33 32 33 32 32 33 36 37 36 40
85 76 70 61 66 68 57 58 64 64 53 58 55 48 42 44 45 44 43 44 43 42 41 42 42 41 42 43 42 40 40 39 36 27 34 40 41 41 40 38 36 37 34 36 38 44 45 47 50
97 77 72 70 68 73 59 49 44 48 56 46 45 38 38 40 44 44 44 44 43 39 40 43 43 43 43 41 38 38 38 37 32 22 21 31 37 38 39 41 41 41 41 43 44 45 44 45 45
92 83 77 71 71 72 72 55 60 52 46 59 56 47 34 34 39 44 45 45 43 38 36 41 43 42 40 38 39 39 39 38 34 24 24 25 28 33 36 43 45 46 45 47 50 51 53 53 49
98 88 80 75 73 72 73 68 63 38 50 55 45 37 31 30 32 35 40 39 37 32 26 40 41 39 36 36 39 39 39 40 35 27 29 30 30 31 35 41 48 49 48 51 50 49 47 45 49
93 100 91 79 70 70 77 64 59 51 52 47 41 20 28 25 21 24 28 27 25 19 26 39 37 33 30 28 30 35 36 38 34 30 32 31 35 37 41 44 47 49 54 54 53 47 41 37 36
97 87 91 88 67 66 71 64 56 52 53 47 41 39 27 24 24 20 17 15 17 30 38 35 32 30 24 22 23 26 30 34 34 34 30 34 36 40 45 48 52 55 52 48 42 38 37 37 36
90 88 84 78 62 69 67 64 60 56 50 50 44 38 38 34 30 23 21 29 38 36 34 32 28 24 26 26 26 26 28 30 31 33 33 38 40 45 47 45 47 44 40 37 38 37 37 38 39
82 80 75 61 55 58 58 62 54 50 51 51 48 41 41 36 33 34 30 35 36 35 31 27 25 27 28 27 27 27 28 29 28 25 24 29 31 31 32 32 34 35 35 36 38 40 40 37 34
79 76 64 53 58 65 61 55 52 52 53 55 49 43 44 33 35 36 38 37 36 34 30 27 29 30 30 31 31 31 31 30 29 28 29 30 31 32 34 36 39 41 42 41 37 31 28 26 24
100 84 57 55 60 68 64 59 56 56 57 52 46 41 42 36 36 33 35 36 36 33 29 30 32 32 33 33 32 29 25 26 31 36 38 40 41 42 42 40 36 33 32 29 28 24 16 12 12
98 72 65 60 70 59 66 44 39 40 46 41 37 36 35 35 38 35 35 36 35 32 32 33 34 34 33 29 24 24 27 34 40 42 43 41 38 36 35 33 32 32 31 26 20 17 14 15 16
82 74 71 70 66 73 75 64 43 42 40 43 33 33 34 32 36 36 36 36 34 33 34 36 35 35 30 27 23 23 28 38 43 44 45 42 36 29 29 28 23 18 18 18 17 15 17 20 22
91 80 81 74 74 74 61 55 37 39 39 38 37 32 33 32 37 37 38 35 34 36 38 37 36 34 32 31 29 29 38 47 50 49 46 42 32 21 18 18 18 16 14 16 18 22 24 26 27
99 97 95 87 80 51 45 48 36 33 29 29 32 35 32 39 40 38 37 35 36 38 39 38 37 36 36 37 35 38 50 55 56 53 50 39 26 21 19 17 19 17 17 19 22 24 27 29 31
100 92 54 64 54 41 51 45 38 40 39 29 29 35 40 41 39 38 37 36 38 40 39 40 40 40 42 43 41 48 55 59 61 58 52 41 25 24 22 18 18 19 22 25 28 30 30 28 22
98 73 66 49 45 37 46 44 40 31 37 33 32 31 34 38 38 37 36 37 39 42 42 43 43 46 48 46 50 56 60 64 65 61 53 33 27 24 19 18 19 22 24 27 28 27 20 14 11
85 74 71 55 48 44 36 34 36 40 38 35 36 36 34 37 38 38 36 38 40 44 44 46 48 51 52 50 57 61 66 69 67 64 53 31 26 18 18 18 21 26 27 27 23 16 13 9 6
96 86 79 57 49 37 37 31 39 36 29 28 35 37 37 36 39 40 36 38 42 46 47 50 54 56 52 55 61 66 69 71 71 64 43 30 22 18 20 23 28 29 26 18 15 14 9 6 5
86 89 77 57 54 45 40 37 38 36 32 31 33 36 34 35 39 41 39 40 45 49 52 56 58 55 55 59 67 71 73 73 66 48 35 26 22 22 25 28 29 23 16 16 14 9 6 5 6

GFSSGP_700_rhum_024.txt.gz
RH
42 43 43 42 25 30 34 28 26 47 48 50 48 43 38 37 38 38 37 38 37 36 36 34 30 28 27 17 3 4 5 3 2 2 2 2 2 3 5 6 6 6 7 7 8 8 9 9 9
42 44 44 46 37 30 29 24 33 34 48 42 47 44 40 38 37 37 37 38 39 37 35 33 33 30 28 27 9 3 5 5 4 3 3 3 3 4 6 7 6 7 7 7 8 9 9 9 10
42 44 44 52 48 34 25 36 37 44 45 43 47 45 39 39 38 37 38 39 41 41 39 36 34 34 30 29 24 6 4 5 5 5 5 5 5 6 7 7 7 8 8 8 9 9 9 10 11
44 44 48 45 43 40 28 28 42 40 41 45 44 45 43 41 39 39 38 39 42 43 41 39 37 37 37 33 29 26 11 4 4 5 5 5 5 6 7 8 8 8 8 8 8 9 10 10 10
46 45 53 50 44 41 32 24 34 34 30 42 41 42 48 44 41 39 39 39 42 42 40 40 40 39 39 39 37 33 28 24 18 9 5 4 5 5 6 6 6 7 7 7 7 8 8 9 9
52 52 59 51 41 36 40 36 25 31 41 44 42 38 46 46 45 40 38 38 40 43 39 40 41 41 41 41 40 39 39 38 33 28 24 19 12 8 6 5 5 5 6 6 7 7 8 8 9
58 58 64 54 44 36 44 45 41 34 39 42 45 43 51 48 45 42 38 38 38 42 39 39 40 40 42 41 41 41 40 40 40 40 39 36 29 23 18 14 11 10 9 9 9 9 10 12 13
65 74 64 59 55 46 41 44 46 31 38 44 45 44 54 52 46 42 38 38 38 40 39 38 40 40 41 41 41 41 40 40 39 40 40 40 39 36 29 24 21 18 17 16 16 16 16 17 17
80 85 74 62 55 49 42 46 47 45 26 39 38 40 46 46 46 45 41 39 39 39 38 38 41 41 41 41 42 41 41 40 39 39 40 38 30 28 28 28 26 24 24 25 25 27 28 29 30
79 89 62 58 53 48 46 50 50 59 46 27 51 48 44 45 44 44 41 39 38 38 40 41 40 40 40 41 42 42 41 40 39 39 38 25 23 24 24 29 28 28 28 29 30 32 32 31 33
77 78 68 59 54 50 50 50 54 59 60 31 44 53 47 50 47 45 43 42 41 42 43 42 41 42 41 42 43 43 42 40 39 37 31 18 19 23 29 32 34 34 33 35 38 41 42 42 41
98 82 79 58 61 58 57 54 53 58 58 63 53 60 53 50 44 44 45 43 44 44 44 40 41 43 43 43 43 42 38 37 38 37 29 20 22 25 28 35 38 39 37 39 38 40 40 40 41
96 93 83 76 63 63 66 63 55 58 48 50 44 39 46 43 42 39 43 44 44 44 44 42 39 42 43 43 42 39 38 38 39 38 32 25 26 29 30 35 40 43 42 44 44 46 45 44 42
96 85 88 81 70 66 66 68 70 44 56 36 46 58 56 52 45 38 38 41 44 45 44 42 33 38 43 42 40 39 40 40 40 40 34 29 31 31 32 37 40 41 41 39 41 42 42 43 40
92 96 91 73 75 72 70 67 70 49 54 32 46 54 45 43 34 32 34 36 41 43 41 35 28 34 41 39 36 36 38 40 40 40 35 32 32 34 37 39 41 40 46 46 46 47 39 36 34
98 91 82 66 79 70 75 71 62 66 56 40 53 46 41 39 38 27 24 31 33 32 30 28 22 37 38 35 30 28 30 31 34 36 33 29 32 34 36 37 42 44 44 43 40 36 31 30 32
84 91 81 84 79 77 69 68 55 58 51 54 53 48 41 35 21 21 23 19 20 21 20 18 30 37 33 31 27 23 25 25 26 32 34 33 35 36 30 27 31 36 34 33 32 32 33 35 37
95 95 84 81 69 77 71 66 63 56 55 53 49 46 40 38 34 27 24 19 19 19 27 36 35 33 28 24 25 26 26 27 30 30 31 33 29 25 25 28 29 29 31 33 35 37 40 41 36
91 88 84 74 76 77 65 58 62 62 54 57 50 50 42 40 35 33 34 29 34 38 37 35 32 26 24 27 27 27 27 29 30 28 28 28 28 29 30 32 35 38 40 41 40 35 28 26 22
98 95 96 86 67 72 61 60 62 60 56 52 47 50 47 42 32 35 37 35 35 36 35 34 29 26 29 29 30 31 32 32 31 28 28 32 36 39 41 42 41 38 35 31 28 21 13 10 10
98 99 82 82 69 64 66 59 60 56 51 50 50 52 51 43 37 36 36 38 38 37 35 31 29 31 33 33 33 31 28 26 29 34 39 42 42 41 40 38 34 25 16 11 10 9 9 8 8
95 66 95 88 76 72 66 62 45 39 38 39 48 54 50 43 39 36 37 36 37 36 33 31 32 34 34 33 29 26 24 26 33 40 43 45 46 42 37 29 16 11 10 10 10 9 9 9 10
80 67 97 72 100 73 78 67 60 42 42 42 50 48 50 43 39 34 38 36 37 35 33 33 35 36 35 31 28 28 28 32 40 47 49 47 43 37 30 17 11 10 10 9 9 9 10 12 14
79 98 99 93 93 88 67 65 52 41 42 43 44 44 43 40 38 35 39 38 38 35 35 36 38 37 35 33 35 36 35 37 44 49 51 50 44 37 22 12 11 10 9 9 9 11 13 14 15
98 100 98 100 99 89 56 62 53 38 41 40 42 42 40 37 35 32 39 39 37 36 36 39 39 38 38 37 41 41 40 42 49 54 54 50 43 30 15 12 11 10 9 10 12 14 15 16 15
88 100 94 97 91 59 49 56 46 44 40 36 33 34 38 40 34 39 41 39 37 38 38 40 40 40 41 42 45 44 45 48 54 55 55 49 42 25 15 13 12 11 11 13 15 16 15 14 15
97 99 88 50 40 51 50 46 41 40 42 40 36 30 33 35 37 42 41 39 38 38 39 42 42 43 44 46 48 47 50 53 56 58 58 53 42 23 16 14 12 13 15 15 15 14 15 16 16
91 80 80 64 59 63 52 45 38 35 31 37 35 29 31 36 41 40 40 38 38 39 42 44 43 46 48 50 51 51 54 57 61 61 60 55 37 21 16 14 14 15 16 16 15 16 18 18 13
99 100 81 60 49 61 58 43 38 38 36 34 38 35 36 34 37 38 38 38 38 40 43 45 47 49 52 54 53 54 57 61 64 62 59 50 28 20 16 15 16 18 17 17 18 20 18 13 9
100 84 74 52 58 48 39 45 40 33 30 27 36 38 41 40 36 38 39 38 38 41 43 48 51 52 56 58 54 56 60 64 63 61 55 37 24 19 18 18 19 18 18 20 21 18 13 10 8

GFSSGP_700_rhum_027.txt.gz
RH
41 42 42 43 33 29 28 15 28 42 46 54 51 40 42 40 38 38 37 37 38 38 36 33 32 30 28 27 20 4 5 5 4 2 2 2 2 3 4 5 6 6 6 7 7 8 8 8 10
41 42 43 42 46 31 32 31 34 45 48 47 46 46 42 41 38 37 38 38 38 40 39 38 34 30 32 29 28 14 4 5 5 5 4 3 3 4 5 6 7 7 7 7 7 8 9 9 9
43 43 42 49 51 41 26 24 38 46 48 46 42 46 44 39 38 38 38 38 39 42 41 40 36 33 34 35 32 28 22 6 4 5 5 5 5 6 7 7 7 7 8 8 8 9 9 9 10
46 45 44 47 42 41 41 26 26 37 45 43 39 48 48 40 40 40 38 39 39 43 42 40 38 36 37 37 38 36 32 28 23 11 5 5 5 6 6 6 7 8 8 8 8 8 8 9 10
52 46 45 50 47 36 42 36 29 30 34 39 35 43 48 45 44 42 39 39 39 43 42 40 38 37 39 38 39 40 40 39 38 34 28 23 15 8 6 5 6 6 6 7 7 7 7 8 8
57 52 53 46 40 36 41 37 38 34 23 32 44 45 43 46 46 45 44 39 39 41 42 39 39 39 40 40 40 40 41 40 40 40 40 39 37 30 24 19 16 12 10 9 8 9 9 10 11
60 58 56 53 42 40 44 46 49 46 26 42 46 47 46 49 49 47 44 39 38 39 42 40 39 39 40 40 41 41 41 41 40 40 40 40 39 37 35 30 24 21 19 18 18 18 18 18 18
64 62 58 55 48 33 45 47 44 43 42 39 45 47 47 51 53 49 44 39 38 39 40 40 38 40 41 41 41 42 41 41 41 40 39 39 32 22 23 24 25 24 24 25 27 28 30 32 32
68 76 68 53 51 33 45 52 45 45 44 34 43 45 46 45 46 50 48 43 40 40 39 38 40 42 41 41 41 42 42 42 41 40 39 35 23 17 22 23 25 26 26 28 32 33 34 35 35
74 73 60 50 48 47 46 52 49 49 48 43 30 48 51 48 47 42 46 44 40 39 38 40 42 41 41 41 41 42 42 42 40 38 37 34 18 19 23 25 27 27 29 30 33 35 35 36 37
44 67 65 50 51 56 55 54 53 50 48 49 44 52 59 58 60 50 45 45 44 41 42 43 43 40 41 42 42 42 43 41 38 38 37 33 18 22 23 25 30 32 34 35 36 37 38 38 36
47 53 70 50 53 50 56 58 57 53 50 48 57 41 53 55 53 51 46 46 45 44 43 44 43 40 39 38 42 42 42 38 35 36 37 36 22 24 26 28 30 32 33 36 35 34 34 34 34
74 72 75 56 52 53 54 64 62 58 53 52 40 51 33 46 52 50 44 41 44 45 44 44 44 42 36 32 39 42 40 36 36 38 39 38 29 27 28 29 30 30 31 31 32 32 31 30 27
87 81 81 78 75 68 62 64 68 54 52 54 43 35 42 40 33 35 37 40 38 42 43 43 45 40 34 31 38 41 38 37 36 39 39 37 33 30 33 33 32 34 32 28 24 23 24 23 25
91 88 87 76 85 86 78 72 67 60 59 51 36 32 44 52 47 37 28 34 36 34 37 43 42 36 28 30 38 39 36 34 31 33 33 33 32 36 37 35 37 34 28 25 27 26 26 28 30
83 85 83 82 75 76 83 79 69 54 63 49 36 42 50 45 44 42 40 34 30 32 32 32 31 28 26 30 39 37 32 29 25 27 31 34 38 36 34 35 32 31 29 28 29 30 33 35 35
83 98 90 84 83 84 82 80 71 64 70 54 47 56 54 47 44 39 24 23 28 26 24 24 23 22 26 35 36 32 29 24 26 30 37 39 36 34 30 29 29 29 30 34 36 38 38 36 31
93 84 82 84 54 78 76 76 68 64 56 50 54 57 54 48 40 37 32 21 21 21 21 20 22 29 34 35 32 27 25 27 28 32 34 34 31 30 30 31 34 37 40 41 40 35 31 24 14
91 92 98 79 78 81 64 78 67 59 63 58 55 52 51 50 44 39 38 29 27 24 25 33 38 36 34 30 25 27 28 29 31 30 30 31 31 32 37 41 43 42 38 35 30 20 9 8 8
81 79 75 73 84 86 77 72 51 57 59 55 55 53 51 52 50 42 39 30 33 33 38 38 36 33 28 27 29 29 30 32 33 31 31 35 39 42 43 43 42 38 30 19 10 8 8 8 8
86 97 68 81 74 82 83 79 68 64 60 60 60 55 51 51 50 48 44 32 36 37 37 36 34 31 29 31 32 34 32 29 29 33 37 41 43 45 46 43 37 25 14 10 9 8 8 8 7
84 78 92 95 98 96 80 92 68 61 61 62 61 51 50 51 53 52 46 32 35 39 38 35 33 30 32 34 34 31 27 26 27 32 40 47 50 50 47 40 30 14 9 9 9 9 8 7 8
73 74 93 96 99 100 95 93 80 60 54 51 50 49 50 52 55 52 45 33 37 38 38 35 33 34 35 35 32 29 32 34 36 40 48 52 53 51 41 26 13 9 9 9 9 8 8 8 9
63 88 90 93 93 98 97 100 69 54 36 43 40 44 54 53 56 54 45 38 37 38 37 35 35 37 37 35 34 37 40 41 44 48 51 51 46 39 30 21 12 10 10 10 9 9 9 10 10
79 95 88 95 97 85 68 93 81 46 39 40 42 42 50 54 54 49 45 42 38 39 37 36 36 39 39 38 40 43 45 46 49 51 53 51 44 39 33 20 12 11 10 10 10 11 11 11 11
76 89 87 87 73 69 79 100 65 42 41 39 42 41 48 51 48 43 42 41 41 40 37 37 39 41 42 42 44 46 48 49 52 53 53 54 52 46 36 19 13 12 11 11 11 12 12 12 14
79 100 61 94 94 79 74 64 53 40 42 40 41 42 36 33 38 41 44 42 42 40 38 39 42 43 44 45 47 49 51 52 54 57 57 59 54 48 32 19 14 13 12 12 13 12 13 14 14
88 91 96 97 96 98 64 46 45 49 46 40 38 35 36 31 36 42 41 43 42 40 40 41 44 45 46 48 50 53 55 55 58 61 62 63 57 44 27 18 15 14 14 13 13 14 14 14 15
97 99 92 88 84 96 79 52 40 42 42 41 41 38 28 28 33 38 42 43 42 40 41 42 46 47 48 50 54 58 58 58 61 63 64 61 51 34 22 17 15 15 14 15 15 14 15 16 15
93 99 88 88 99 91 47 49 41 38 33 33 33 33 32 35 35 38 41 41 41 40 42 43 45 49 51 54 60 64 59 60 62 64 62 52 40 27 20 17 17 17 16 16 15 16 17 15 15

GFSSGP_700_rhum_030.txt.gz
RH
40 40 41 41 40 27 17 22 30 28 52 52 48 47 46 42 35 36 37 37 36 37 38 38 35 32 31 29 27 17 4 5 5 5 3 3 3 2 3 4 6 6 6 6 6 7 7 7 8
42 41 41 42 39 41 29 25 39 32 42 48 50 48 44 40 38 37 36 38 38 40 41 40 37 33 33 34 32 29 26 12 5 5 5 5 5 4 5 6 6 6 7 7 7 8 8 9 9
45 43 42 43 42 41 28 27 29 37 47 47 47 44 46 40 40 39 38 38 40 41 42 41 39 35 36 36 36 37 34 30 27 16 7 5 5 6 6 7 7 7 8 8 8 8 9 9 9
49 46 44 43 37 30 32 42 38 29 33 46 46 46 48 42 40 40 40 39 40 43 43 41 39 36 37 38 38 38 39 39 38 37 33 29 20 9 6 6 6 6 7 7 7 7 8 8 8
54 48 47 45 36 27 37 44 30 26 35 34 43 44 48 46 43 42 42 42 39 41 44 42 39 38 39 39 39 38 38 40 40 40 40 39 38 34 27 21 14 10 7 7 6 7 7 7 8
59 54 52 46 36 30 36 42 36 28 32 32 35 41 40 45 48 47 45 42 39 40 42 42 39 39 40 41 40 40 39 40 40 40 40 40 39 37 36 33 28 22 20 17 16 16 16 16 17
48 60 52 47 40 34 34 45 44 45 46 39 42 47 45 42 43 48 46 45 42 39 40 42 40 39 40 41 41 41 40 40 40 40 39 39 36 26 20 22 24 24 23 23 23 24 25 26 27
53 62 60 53 46 30 33 46 45 45 46 43 39 47 47 48 50 52 48 44 41 39 39 41 40 39 42 41 41 42 42 41 40 39 38 38 32 19 18 20 23 24 23 24 26 28 29 30 29
48 70 56 49 45 29 32 49 48 50 47 45 41 45 46 47 47 51 52 48 43 40 40 40 39 41 41 41 41 41 42 42 40 35 35 37 32 17 19 22 24 24 26 27 26 28 28 31 31
46 61 52 34 38 30 34 49 54 54 50 48 45 39 46 49 50 45 45 47 46 41 40 39 40 43 43 42 42 42 43 42 40 32 33 37 34 18 23 26 27 28 28 29 30 30 30 31 32
44 42 43 35 36 36 35 45 56 58 54 51 48 44 53 52 56 48 45 42 45 43 40 41 43 44 40 40 41 42 43 42 40 34 34 38 37 22 24 28 28 27 28 29 31 33 33 32 32
47 40 42 37 40 41 43 46 61 58 62 57 53 46 56 48 59 60 58 42 43 44 45 43 44 44 43 41 36 35 41 42 40 36 37 38 38 28 24 27 28 29 30 32 33 32 32 29 26
59 47 42 40 41 59 48 53 60 59 60 65 60 54 48 50 57 59 58 50 44 43 44 44 45 45 44 42 36 33 39 41 38 35 34 36 35 28 27 30 30 31 31 32 30 27 26 26 25
54 68 61 54 46 49 58 48 57 56 59 63 65 57 50 42 42 44 53 53 46 41 40 43 44 44 45 39 33 32 38 39 36 32 29 30 35 35 35 35 34 33 34 29 28 27 27 26 29
70 66 68 62 62 82 84 56 44 56 59 65 58 51 43 40 37 45 44 29 31 35 39 38 40 43 40 33 31 32 36 37 35 30 28 31 39 43 43 41 38 35 34 30 29 29 32 35 37
78 80 82 62 72 69 88 68 54 51 63 65 60 43 40 39 40 46 46 44 42 34 34 35 34 33 30 28 33 30 39 38 33 29 28 31 40 43 42 39 33 32 31 31 36 38 39 37 32
92 92 85 84 66 86 72 66 68 57 61 64 60 48 46 50 45 44 46 42 30 29 34 30 32 30 27 26 30 39 40 36 31 27 30 39 43 41 38 32 32 32 38 40 40 38 34 29 21
93 85 78 76 70 66 76 75 73 64 64 60 59 50 58 57 54 52 47 41 35 23 26 30 31 28 25 29 38 41 36 34 28 31 35 37 40 35 33 32 39 42 41 40 38 34 24 12 8
76 89 87 81 88 82 89 76 80 79 68 62 51 47 52 58 55 52 44 40 38 26 24 26 27 25 28 41 37 35 30 31 32 35 34 33 33 33 39 42 43 43 42 39 29 15 8 8 8
70 87 78 86 76 91 94 85 79 61 65 63 52 53 61 57 56 51 48 42 40 28 28 26 28 36 38 36 32 29 32 34 32 34 32 32 37 40 43 45 48 46 39 27 14 8 8 8 9
57 78 88 92 60 71 90 86 71 46 56 61 55 53 59 56 54 52 47 47 45 31 33 36 39 37 32 29 29 31 32 34 32 30 32 37 41 46 50 51 49 39 26 13 9 8 9 10 10
72 58 75 80 92 94 86 82 69 59 55 63 47 53 54 59 54 51 49 50 50 35 37 37 37 35 32 30 33 35 34 31 28 30 36 40 48 52 53 48 39 26 15 10 9 10 10 10 10
72 70 77 87 89 88 76 91 80 69 64 48 47 47 59 59 56 51 48 52 51 42 36 39 38 34 32 36 36 34 30 32 38 41 44 47 51 51 46 41 30 20 12 11 11 11 10 10 9
89 94 95 91 85 97 67 82 65 58 54 45 47 46 52 58 57 50 52 54 54 45 38 38 37 34 34 36 36 33 37 42 44 47 49 51 52 50 43 34 27 18 13 12 12 11 11 10 10
95 98 96 98 97 82 58 74 59 51 40 41 39 44 46 58 57 48 53 55 53 46 40 38 37 35 37 38 37 38 43 46 48 50 52 53 54 50 43 38 29 18 14 13 12 11 11 11 11
81 89 93 93 99 62 66 87 61 34 32 53 53 39 43 46 54 52 54 56 51 48 42 39 37 37 40 40 40 43 46 49 51 53 55 56 57 56 50 39 25 17 15 13 12 12 12 12 12
88 98 57 96 71 95 56 45 37 33 44 42 47 40 43 39 42 55 56 55 52 51 44 39 38 40 42 42 43 46 50 55 57 58 59 60 62 62 55 36 24 17 14 13 12 12 12 12 11
86 80 92 97 98 98 83 65 37 17 34 42 43 39 43 43 44 52 57 56 54 51 44 40 40 43 45 45 47 50 55 60 62 61 61 63 67 65 50 31 21 17 14 13 13 12 12 12 13
99 97 94 75 74 95 98 76 49 31 37 45 43 42 40 37 47 52 52 56 57 51 43 41 42 44 46 48 50 54 59 64 66 63 65 69 70 61 37 25 19 16 14 13 13 13 13 13 12
99 90 88 82 67 74 99 69 49 29 38 44 42 42 40 39 41 49 56 55 51 49 44 42 44 47 50 52 54 58 63 69 69 67 70 72 68 44 29 21 17 15 14 14 13 13 13 13 13

GFSSGP_700_rhum_033.txt.gz
RH
42 40 40 40 36 36 18 20 30 34 36 55 51 46 48 46 38 36 37 38 37 36 37 38 36 32 31 31 30 28 17 6 5 5 5 5 4 3 3 4 5 6 6 6 6 6 7 7 7
44 43 41 41 38 39 33 24 44 44 34 50 51 51 50 43 41 38 38 37 37 37 40 40 38 34 33 34 35 34 31 30 22 10 6 5 6 6 6 6 7 7 7 7 8 8 8 8 9
44 46 44 43 40 34 32 31 28 37 46 50 48 49 47 45 42 39 39 38 39 40 42 42 40 36 35 35 35 37 38 37 37 35 32 21 10 6 6 6 7 7 8 8 8 8 8 9 9
47 46 47 43 36 32 30 36 39 30 30 38 48 48 48 42 42 40 39 39 40 41 43 42 40 38 38 38 37 37 38 39 40 39 39 38 35 32 24 16 9 6 6 6 6 7 7 8 8
46 49 49 45 32 28 31 37 45 32 27 26 35 44 47 47 43 41 41 41 41 40 42 43 41 39 39 40 40 39 39 39 40 40 40 39 39 38 37 33 27 22 18 16 13 11 10 10 10
46 47 54 43 29 28 30 34 43 34 29 38 43 32 39 45 48 44 44 43 42 40 41 43 41 39 39 41 41 41 41 40 40 40 39 39 38 32 27 26 28 27 24 22 21 20 19 20 20
39 49 47 40 32 30 28 36 42 36 41 45 45 34 35 35 42 47 47 46 46 40 40 41 42 39 40 41 41 42 42 41 40 40 38 39 35 26 17 17 20 24 25 25 24 25 26 27 28
37 57 58 49 38 26 28 34 45 46 43 45 44 39 39 46 48 49 48 46 45 41 39 41 42 40 41 42 41 41 42 42 42 39 36 38 36 24 19 21 21 21 22 22 22 24 25 26 27
38 60 43 37 39 29 27 32 46 47 49 49 46 43 44 46 47 51 49 48 45 41 40 40 41 40 42 42 41 41 42 43 42 39 34 36 37 28 20 24 26 26 28 28 28 28 29 30 31
45 46 36 36 39 35 36 40 47 49 51 51 48 48 43 47 47 46 49 50 50 46 42 41 41 40 44 44 43 43 43 44 42 40 33 35 38 35 22 25 28 29 30 30 29 30 31 32 32
49 39 44 39 39 45 39 40 41 49 53 57 55 53 50 43 46 43 44 45 46 47 44 41 42 44 45 42 42 42 42 42 43 41 36 36 38 38 29 25 29 30 30 30 31 32 33 34 32
58 49 47 38 42 48 44 36 40 45 54 59 62 59 55 52 45 44 43 41 43 43 46 45 44 45 44 43 43 40 39 42 43 41 39 38 39 40 37 29 28 32 32 33 34 34 31 30 29
56 49 54 53 45 42 50 44 42 42 56 62 63 63 60 55 53 49 55 51 39 38 38 45 46 45 45 44 42 39 39 39 41 41 40 39 39 39 38 33 32 34 33 34 34 29 28 28 26
54 50 52 60 54 46 46 46 50 37 45 61 62 63 62 58 53 52 53 60 58 42 41 44 42 45 45 45 41 37 36 38 40 40 39 37 36 37 37 35 33 34 33 30 29 29 26 28 35
66 57 54 53 46 55 47 37 32 40 40 56 60 62 63 59 52 52 51 48 48 45 44 48 43 41 43 44 41 35 33 36 37 38 38 35 34 36 43 40 40 35 31 30 29 29 34 35 35
72 75 60 38 46 53 61 32 37 34 36 45 54 55 59 53 46 45 47 38 43 46 34 36 38 40 38 38 37 33 31 34 38 41 36 35 36 42 43 43 37 32 30 30 38 38 38 37 34
84 87 73 68 51 55 62 45 43 41 45 35 39 47 54 46 43 40 39 37 46 44 37 38 40 41 38 34 32 30 33 42 45 46 47 48 44 44 42 35 32 30 33 38 40 40 38 31 19
79 96 99 83 67 69 62 59 66 63 63 52 44 41 47 40 44 53 44 42 47 43 40 28 27 38 40 37 33 32 41 47 47 46 54 43 44 39 35 32 34 34 37 40 42 39 31 17 9
66 88 95 91 86 69 60 81 62 58 77 65 50 52 50 46 54 58 54 51 49 43 41 34 28 29 34 35 32 31 47 49 60 42 42 41 37 34 34 37 37 39 44 45 40 27 14 8 8
79 82 85 84 87 82 64 57 52 61 47 61 47 45 48 46 51 52 56 50 47 44 42 37 32 28 28 30 31 46 50 45 42 40 37 35 33 35 39 42 47 49 48 37 23 13 10 9 9
76 72 88 69 54 56 72 46 32 31 36 33 41 39 41 44 48 61 56 52 49 47 44 37 34 32 33 37 43 40 36 38 39 38 33 33 34 39 46 51 53 46 36 25 15 11 11 12 12
95 69 72 65 88 95 75 77 42 32 22 31 32 30 38 45 52 60 58 56 51 50 47 39 38 41 40 37 32 32 37 38 37 34 32 37 42 47 51 51 46 36 27 19 14 14 14 15 14
91 83 86 86 84 86 71 88 59 43 20 19 37 32 27 35 55 58 56 58 53 52 52 42 40 39 36 33 31 33 36 35 33 35 42 45 48 51 51 48 41 32 24 18 16 16 16 15 13
83 97 95 98 96 96 78 86 55 38 18 16 26 34 33 36 47 58 56 56 55 51 53 47 40 39 36 33 35 37 36 33 38 44 47 50 53 54 52 51 46 38 25 18 17 17 15 13 12
92 98 96 98 97 85 58 71 56 24 19 12 16 41 42 50 38 47 55 55 58 53 55 50 41 40 36 35 38 37 35 40 45 48 50 53 55 56 58 58 51 40 24 18 18 16 14 12 12
74 80 93 95 89 77 63 70 44 29 15 28 21 40 43 47 47 51 57 58 54 52 56 52 43 39 36 38 39 38 40 46 49 52 54 56 56 58 61 62 55 40 22 19 18 14 13 12 12
98 100 68 93 94 97 68 50 36 30 22 14 30 49 46 45 53 56 55 58 52 52 57 51 45 39 38 40 41 42 46 49 53 56 58 60 60 62 64 64 54 31 21 19 16 14 13 13 13
98 85 96 98 93 93 74 73 46 27 18 13 13 40 46 43 45 48 54 57 59 54 58 52 46 40 40 43 44 46 49 53 57 59 64 67 66 66 67 65 49 25 20 17 15 14 13 13 14
98 98 94 80 78 96 99 55 40 42 24 12 17 36 44 44 42 45 52 58 58 59 56 54 45 41 43 46 49 50 53 56 59 64 70 72 70 70 70 63 34 23 18 15 14 14 14 14 14
97 92 96 80 84 72 91 69 38 61 40 23 14 43 44 41 43 45 49 56 59 60 58 54 44 44 47 49 51 53 57 60 63 69 75 76 73 72 70 46 25 20 16 15 14 14 15 14 13

GFSSGP_700_rhum_036.txt.gz
RH
42 40 40 40 37 38 23 14 29 38 36 53 54 49 49 45 38 40 37 38 38 36 36 37 36 33 30 32 32 30 28 19 9 6 6 6 5 4 4 5 6 6 6 6 6 6 7 7 7
39 42 42 42 40 38 33 23 34 35 36 50 56 53 48 46 42 39 37 37 38 37 38 40 39 35 33 33 34 36 36 34 34 29 15 7 6 6 7 7 7 7 7 8 8 8 8 9 9
39 41 45 46 42 36 30 30 37 44 45 49 50 51 49 48 44 39 38 38 39 38 40 42 41 38 35 35 36 36 38 39 39 39 37 34 23 10 6 6 6 7 7 8 8 8 9 9 9
41 42 48 46 37 33 31 32 29 35 35 38 44 49 49 47 45 42 40 39 39 40 40 42 42 39 38 38 38 38 39 40 40 40 40 40 39 35 31 27 22 15 11 7 7 6 7 7 7
38 46 48 49 33 29 32 34 40 31 30 34 35 36 47 47 44 41 41 40 41 41 41 42 42 40 39 40 40 40 40 40 40 40 39 40 38 36 34 34 32 28 24 21 19 18 16 15 15
40 44 56 43 32 28 30 33 35 42 30 27 40 44 36 43 47 44 43 42 41 42 42 42 43 40 40 41 42 41 42 42 41 40 39 39 36 29 22 21 24 25 25 24 23 22 22 22 22
35 43 48 40 29 29 26 34 36 43 39 34 42 46 41 35 38 48 46 46 46 42 40 41 42 41 40 42 42 42 42 43 42 40 37 38 37 30 20 20 22 23 22 22 22 21 22 23 22
38 48 45 35 32 30 26 31 35 41 42 40 42 44 43 37 39 39 46 48 46 45 42 40 42 42 40 43 42 42 42 43 44 42 37 36 37 34 21 24 24 26 26 26 26 26 26 27 27
40 54 38 34 35 31 27 30 34 42 47 44 43 45 45 43 43 44 47 48 47 45 42 40 41 42 40 43 43 42 42 43 44 44 39 36 38 38 27 25 28 30 30 32 31 31 32 34 33
46 49 36 33 34 34 34 42 44 41 49 49 50 47 46 45 46 45 44 47 49 46 42 42 41 42 40 44 44 43 43 44 45 44 41 37 38 39 37 28 28 29 31 33 33 34 34 36 35
52 46 35 37 39 37 36 37 44 50 51 53 53 53 52 52 50 44 44 46 50 50 47 44 42 42 42 45 44 43 42 41 43 45 43 39 38 40 40 37 30 31 33 35 36 36 35 34 28
56 48 42 40 47 48 41 34 35 41 46 53 61 63 61 57 55 51 46 43 43 46 48 46 45 45 47 47 44 44 43 41 42 43 43 42 40 40 41 41 36 35 36 37 38 35 33 28 28
61 50 52 50 47 42 42 38 34 32 36 43 56 63 61 59 57 56 52 50 46 42 44 44 47 47 48 47 46 46 44 42 40 40 42 43 43 43 44 44 41 38 40 39 38 33 29 28 26
64 55 47 47 50 48 43 35 40 24 31 37 45 63 63 60 57 58 58 58 57 55 43 40 43 46 46 47 46 45 43 41 38 39 40 44 45 42 42 42 41 40 38 36 32 30 27 27 33
58 55 54 47 37 41 39 35 30 27 26 31 40 55 64 62 58 52 55 56 54 51 52 53 46 51 49 46 47 47 46 39 37 39 39 44 40 36 35 38 40 40 37 33 30 26 31 33 34
66 68 51 41 40 41 50 34 30 36 28 26 31 40 59 60 59 54 52 53 52 48 43 45 43 42 49 48 48 45 47 42 38 39 43 45 36 34 38 40 43 39 34 30 32 34 35 37 36
58 67 63 60 62 62 61 56 37 34 30 29 28 30 44 60 57 48 50 51 49 39 36 44 47 42 45 47 50 44 42 44 40 42 53 58 37 35 42 46 39 33 34 34 34 40 42 37 24
62 72 63 53 50 53 57 66 40 38 51 35 32 33 31 41 52 52 49 52 47 37 32 46 40 34 39 44 48 49 46 48 43 53 60 72 76 46 50 39 34 36 36 38 43 44 35 20 11
61 74 90 81 78 80 57 49 33 32 41 33 28 29 35 32 38 43 45 51 54 36 41 46 41 36 35 33 39 44 46 50 45 65 86 50 80 52 38 36 37 39 43 43 42 30 20 13 10
66 75 82 78 50 47 46 31 28 26 29 29 31 27 26 38 33 33 38 55 56 46 48 46 41 40 34 32 34 44 54 55 56 73 92 52 49 39 37 39 42 46 43 36 28 20 16 12 14
74 82 81 72 53 47 55 34 27 21 19 20 22 25 23 26 35 38 44 59 57 52 50 45 43 40 35 32 36 46 49 55 55 49 74 47 37 36 41 44 45 43 38 31 23 18 15 16 17
75 77 72 80 96 97 62 73 48 35 23 17 15 17 21 23 30 35 44 54 55 53 50 49 46 42 39 36 35 40 51 56 47 45 86 39 37 43 46 46 47 44 41 36 27 19 17 18 19
96 91 87 96 97 98 93 93 53 44 31 20 16 12 16 20 28 32 46 49 58 56 53 52 51 43 41 43 42 41 41 42 44 44 40 39 46 49 50 51 50 52 50 42 30 20 19 20 19
90 100 100 98 97 97 79 89 57 50 35 24 19 14 13 18 19 34 45 59 63 59 55 52 53 46 41 39 36 34 37 42 42 40 40 48 51 53 54 53 54 55 55 49 33 20 20 19 16
99 100 96 98 96 83 65 79 55 42 37 34 21 15 14 20 27 24 43 61 60 60 57 53 54 50 41 38 34 35 40 40 38 41 49 52 54 56 56 56 57 57 58 54 31 20 20 17 15
86 92 84 92 93 82 74 83 57 38 39 26 25 22 22 23 35 28 31 53 58 60 59 53 55 54 42 38 36 39 39 38 39 48 52 55 57 59 61 62 62 61 61 53 24 20 18 15 14
98 100 87 88 74 92 74 63 54 47 40 26 27 23 18 50 45 45 47 42 57 60 60 57 54 56 44 38 38 40 40 40 48 52 55 58 60 64 67 68 67 64 64 40 21 19 16 15 14
71 94 98 98 95 93 79 75 52 44 37 38 28 22 28 37 54 48 51 49 47 60 60 55 57 56 45 40 42 42 42 46 51 55 58 60 63 69 73 73 71 67 59 24 20 17 15 14 15
90 97 98 96 91 92 89 50 43 62 66 61 30 23 19 26 45 57 54 51 55 63 58 56 59 56 46 42 44 45 46 50 55 57 60 62 66 72 76 77 73 69 34 21 18 16 15 16 16
96 97 95 97 93 83 75 59 42 53 45 52 60 20 15 17 35 47 46 48 56 63 61 60 60 55 46 45 48 48 50 55 58 59 62 66 70 74 80 78 73 47 22 19 17 16 17 17 16

GFSSGP_700_rhum_042.txt.gz
RH
37 40 41 41 46 42 34 28 17 40 36 27 30 41 49 44 51 42 40 38 36 36 38 37 35 33 31 29 29 30 30 29 22 8 6 6 5 4 4 5 6 6 6 7 7 7 7 7 7
32 37 42 45 42 36 30 33 18 42 37 36 38 48 50 49 42 41 38 38 37 38 36 38 36 36 34 32 31 33 34 35 34 33 24 9 6 7 7 7 7 7 8 8 8 8 8 8 8
31 34 44 51 43 35 33 32 34 28 39 42 54 53 50 48 44 40 40 39 40 40 40 37 37 38 37 35 34 34 35 37 38 38 37 35 25 10 7 7 7 8 8 8 8 9 9 9 9
30 32 39 47 38 40 39 32 28 31 43 45 52 53 51 48 47 46 43 45 44 43 43 41 39 40 38 38 38 38 38 38 38 39 40 39 38 34 29 23 19 15 12 9 8 7 7 7 7
31 32 50 49 39 39 32 38 33 37 43 44 49 50 50 50 47 43 42 40 43 43 42 41 40 40 40 39 40 40 40 39 38 36 36 38 37 34 32 32 32 28 25 22 20 19 19 18 18
34 42 49 42 36 41 29 32 39 36 39 37 43 44 42 47 49 46 42 40 41 42 44 43 42 41 40 40 40 41 41 41 41 39 33 33 36 34 25 19 18 20 22 23 24 24 24 24 24
39 53 42 41 35 39 40 30 32 39 38 39 34 38 45 38 43 48 46 42 40 41 43 44 43 42 41 40 41 42 42 41 42 42 40 33 33 35 30 20 20 19 19 20 19 22 22 23 24
33 58 48 52 38 40 48 26 28 33 40 36 41 34 41 40 39 37 45 48 44 42 41 43 43 43 42 41 41 43 42 42 42 44 43 41 35 34 35 29 23 25 26 27 28 29 29 30 30
29 60 46 48 47 47 43 28 29 30 33 34 39 40 34 40 42 38 37 39 47 48 46 42 43 43 43 42 41 43 43 43 43 44 44 44 40 38 37 36 32 26 29 32 31 31 31 32 33
42 68 53 56 56 51 50 29 34 28 30 34 39 42 40 43 43 41 42 49 48 48 47 45 43 44 43 43 42 43 44 44 43 44 44 45 44 41 39 39 38 35 30 29 31 32 32 33 34
52 69 63 42 29 26 31 26 31 30 34 31 48 43 42 45 46 45 44 45 49 52 50 44 43 44 44 44 43 43 45 45 44 44 42 43 45 44 42 42 42 40 37 32 32 33 34 35 36
44 30 43 42 35 31 30 37 28 27 26 53 36 45 44 45 45 46 44 47 48 48 51 50 46 45 45 45 44 44 46 46 45 46 45 43 44 44 45 46 45 42 41 39 35 36 36 37 34
55 47 42 44 38 37 38 29 30 34 21 26 38 47 49 48 46 48 46 43 45 46 46 46 49 49 46 47 49 50 50 48 46 47 47 45 44 45 46 47 47 43 42 41 40 40 38 34 30
52 43 39 35 34 37 35 30 46 23 19 24 26 38 50 53 51 52 48 45 43 44 45 47 47 48 50 49 49 50 49 48 48 49 49 47 44 46 47 46 44 42 42 42 42 38 34 31 32
47 43 43 34 33 36 36 32 27 23 25 24 25 25 36 54 58 56 54 48 44 42 48 48 49 48 49 49 51 51 48 47 47 48 49 49 45 44 44 44 37 39 45 43 39 34 31 30 32
48 48 61 42 35 36 40 42 49 29 24 24 24 27 26 31 53 59 61 57 51 46 46 52 52 50 48 48 52 56 53 52 51 47 47 47 48 41 46 44 35 41 44 40 34 30 29 35 37
72 62 76 61 40 43 44 62 54 32 31 28 26 26 27 27 29 46 54 62 58 52 49 51 54 54 51 51 50 52 52 53 54 50 50 50 48 44 44 52 40 44 42 34 32 34 37 33 25
62 80 77 72 69 45 46 61 46 36 33 32 32 28 23 25 25 27 37 48 59 57 53 50 53 54 52 46 50 51 54 50 52 51 55 59 54 57 58 90 86 49 36 35 40 40 34 28 23
69 87 88 82 55 52 39 41 49 34 30 30 27 26 24 23 23 26 28 35 46 58 57 54 49 52 50 44 46 47 50 51 46 52 58 67 66 74 84 98 65 44 37 42 43 39 36 38 34
98 92 83 82 56 64 71 29 39 31 27 27 29 28 25 23 22 23 26 27 34 41 51 57 51 48 49 42 47 44 42 46 50 54 66 72 78 88 83 88 56 38 42 46 45 47 47 47 45
96 93 86 84 85 85 73 49 36 43 28 25 24 25 26 24 22 20 21 25 27 35 40 47 53 52 46 46 50 45 43 41 43 53 66 76 85 91 96 90 46 42 48 50 51 51 49 47 47
91 95 81 97 95 80 92 55 47 38 26 22 17 21 24 25 25 22 20 20 24 27 34 37 48 54 42 46 51 47 45 42 44 56 73 89 98 99 96 61 42 48 53 54 54 55 53 51 48
96 98 100 100 100 99 84 97 36 34 22 17 28 29 38 23 26 25 20 18 20 26 31 32 39 43 40 52 50 47 43 39 40 64 84 97 88 99 72 80 49 54 57 58 60 61 63 59 54
96 97 99 100 100 88 60 78 32 24 25 31 28 22 27 25 32 28 22 16 18 25 32 35 36 44 48 53 50 46 41 43 44 68 91 97 99 98 94 51 54 58 61 64 66 68 67 63 56
100 94 79 83 92 64 52 56 44 33 34 27 25 19 14 18 25 30 21 15 15 22 27 40 44 52 56 53 50 46 42 49 62 77 98 99 98 83 100 54 58 62 66 70 71 71 71 66 57
97 97 67 69 54 33 61 56 35 33 34 33 30 31 20 24 26 32 22 20 16 22 28 44 55 59 58 54 54 48 42 45 49 85 95 99 96 99 56 58 62 67 72 73 71 73 74 67 49
99 99 80 87 75 68 46 40 39 40 42 44 42 33 40 34 29 30 32 23 27 26 35 46 59 60 59 55 55 50 42 41 46 66 86 99 71 54 57 62 67 73 73 72 72 77 76 62 35
97 96 94 96 81 65 44 42 42 42 46 41 49 35 32 40 48 28 31 33 42 34 48 56 62 65 61 57 56 54 44 42 46 98 99 99 84 56 62 67 73 75 75 72 73 80 72 44 23
89 100 99 87 91 68 67 45 43 44 41 45 40 45 50 51 56 26 39 48 47 44 52 60 65 68 65 60 58 56 46 44 98 100 99 56 55 61 66 72 77 77 74 72 76 80 56 26 20
86 91 98 96 87 96 90 70 58 56 64 53 47 56 55 50 58 36 44 72 65 46 53 61 68 69 66 64 62 57 46 50 85 84 53 53 59 65 70 76 78 76 74 74 82 66 31 20 18

GFSSGP_700_rhum_045.txt.gz
RH
36 38 41 41 49 42 32 28 26 31 30 32 41 43 43 43 43 43 46 41 36 34 35 36 34 32 28 30 28 28 29 30 29 24 11 6 6 4 4 4 5 6 6 7 7 7 7 16 8
32 35 41 54 46 34 30 27 28 26 35 42 38 32 43 44 46 45 40 39 37 36 37 34 32 29 30 31 31 30 30 31 34 34 32 25 9 7 7 7 7 7 7 8 8 8 8 8 8
30 31 50 52 43 33 27 30 29 33 40 36 39 32 48 50 47 42 41 39 37 39 38 39 37 36 36 35 34 34 34 34 35 36 37 36 33 23 10 7 7 8 8 8 9 9 9 9 9
32 34 51 52 39 33 30 31 29 38 37 37 45 46 50 50 47 43 41 39 39 39 40 41 39 37 38 37 37 37 36 36 35 35 34 36 38 36 34 30 25 17 12 9 8 7 8 8 8
32 54 52 41 35 32 31 35 35 38 37 39 42 41 51 51 47 45 45 43 43 42 44 44 41 39 38 38 39 40 40 39 39 37 34 32 36 34 31 30 31 30 27 23 20 18 17 17 18
58 56 47 38 33 32 30 37 41 40 38 39 40 43 46 50 49 45 44 43 43 43 43 43 42 41 40 39 39 40 41 42 42 41 39 33 34 35 32 22 18 19 20 22 23 24 24 23 23
70 57 42 35 29 27 29 39 41 40 38 37 38 40 43 47 49 48 46 42 40 42 42 43 44 43 41 40 40 40 42 42 42 42 43 40 34 34 35 28 21 21 21 21 21 21 22 23 25
68 58 47 39 29 28 28 38 43 39 39 39 41 39 37 55 42 48 47 45 43 41 42 44 44 44 43 42 41 41 42 42 42 42 43 43 41 36 35 34 30 25 26 27 28 28 28 28 28
36 64 48 42 32 31 35 43 46 44 42 42 41 40 43 42 40 39 40 47 47 45 43 41 42 44 44 43 42 42 43 42 42 42 43 44 44 41 37 36 36 34 28 26 28 29 30 30 30
75 60 47 36 33 36 44 48 44 48 37 40 47 47 37 39 37 40 39 37 39 45 49 48 44 42 44 44 43 42 42 43 43 43 42 42 42 44 42 40 39 38 36 32 28 30 32 33 32
90 68 51 49 54 58 60 54 56 55 52 43 43 47 44 40 39 40 41 40 40 44 44 47 47 45 44 44 43 43 42 43 45 44 43 42 41 43 43 43 42 41 40 37 35 32 33 36 36
83 74 68 65 81 51 42 69 67 59 37 49 52 52 61 42 44 44 44 44 75 43 45 50 48 45 44 44 45 44 43 42 45 46 45 45 44 42 42 44 44 44 43 40 39 37 37 38 37
93 70 72 73 73 70 48 34 69 75 42 26 57 63 53 43 43 48 46 47 46 46 44 48 50 49 47 47 48 46 48 46 46 48 47 48 48 46 43 43 44 44 45 41 42 42 40 39 35
89 83 82 80 56 63 46 30 57 28 17 23 22 30 34 43 43 46 47 46 45 43 44 46 46 47 49 49 48 50 49 52 50 50 51 51 50 48 45 43 44 42 42 40 42 42 41 35 31
68 75 70 45 46 64 54 42 28 19 21 20 19 21 22 31 45 45 50 48 46 45 46 46 44 44 43 45 49 51 50 49 49 49 48 49 51 51 50 44 42 42 36 35 41 41 35 32 31
54 78 69 58 56 62 65 52 47 51 50 41 25 24 24 21 31 48 48 49 49 48 48 48 44 45 45 47 46 52 53 53 54 55 52 49 51 50 56 47 40 41 35 38 41 36 33 33 37
78 60 57 52 66 67 64 62 52 54 39 46 47 34 30 25 22 26 50 52 58 53 50 47 45 49 50 50 49 49 51 51 49 53 52 53 52 49 50 44 41 41 37 40 36 32 34 38 33
53 60 57 51 58 69 64 64 55 59 41 32 38 48 36 41 24 23 26 52 58 65 59 54 49 49 51 53 54 53 51 50 52 54 53 54 55 52 58 55 44 56 55 39 34 36 39 36 37
69 68 61 60 63 64 61 57 52 41 29 24 24 24 24 24 22 19 23 25 43 50 54 57 54 49 49 50 52 53 48 47 53 56 57 61 58 64 67 68 72 85 56 39 36 41 40 42 43
83 75 65 62 64 64 60 36 41 21 15 16 16 16 17 20 23 22 21 22 25 36 47 50 56 54 50 50 52 54 50 43 48 52 59 61 61 73 78 77 80 84 53 38 42 43 44 44 43
82 76 70 66 67 70 66 47 23 32 22 17 15 15 20 24 26 26 25 23 21 25 28 37 56 58 54 51 54 56 46 39 46 49 48 52 63 77 89 89 85 90 53 40 46 48 49 50 53
79 75 79 79 81 65 74 59 43 26 31 36 28 22 29 25 28 27 27 26 23 22 25 26 39 59 60 56 52 51 45 44 46 46 52 59 65 73 82 92 98 78 44 46 50 53 56 60 62
89 94 89 87 89 95 76 76 41 31 27 29 34 37 35 38 40 41 31 26 25 26 25 26 29 40 54 59 51 52 48 50 48 46 48 56 70 78 95 97 100 96 49 51 55 58 62 66 66
96 96 96 94 95 90 63 59 36 23 21 23 24 31 34 28 26 29 22 26 24 23 29 24 30 31 38 47 50 55 51 50 49 46 44 56 75 85 96 79 99 81 53 56 59 62 66 68 66
99 95 80 88 91 65 39 38 41 28 27 32 34 32 32 22 19 12 14 23 26 23 21 21 24 38 36 39 49 48 55 52 49 44 48 60 82 96 92 100 80 64 55 59 62 67 68 67 64
100 98 67 68 49 37 39 43 34 30 31 34 37 38 37 37 50 46 23 13 26 25 19 19 23 38 40 46 45 56 56 52 48 46 55 68 85 99 99 95 93 63 58 62 66 68 68 65 63
100 98 69 84 70 63 42 30 30 32 34 36 39 40 40 53 66 58 36 30 28 24 22 18 23 39 51 50 52 59 55 54 47 47 53 67 85 99 90 91 92 60 62 65 69 69 68 64 66
96 85 88 95 81 60 33 33 34 35 37 40 42 45 46 62 46 41 45 28 36 34 29 23 26 45 64 65 64 60 57 56 46 46 50 84 74 100 99 83 64 60 65 70 71 70 68 66 73
96 100 93 78 78 59 57 40 37 42 46 46 48 46 51 69 74 47 53 44 33 36 33 37 36 54 70 72 66 60 59 56 47 46 91 64 99 98 96 91 62 65 69 72 73 71 68 72 74
86 92 92 92 67 82 79 65 48 53 53 56 56 64 71 68 65 56 40 54 32 46 42 55 42 53 71 72 68 61 60 58 48 78 64 99 98 96 75 62 65 69 72 75 75 71 73 77 70

GFSSGP_700_rhum_048.txt.gz
RH
34 36 39 39 40 49 42 36 29 26 28 27 30 32 39 42 44 46 48 44 40 36 34 34 35 31 28 28 28 29 28 31 31 31 28 11 6 6 5 5 5 5 6 6 6 6 6 8 8
32 36 39 40 59 48 40 33 29 26 29 32 31 34 41 44 45 47 44 44 41 36 35 36 31 32 31 29 28 30 30 30 31 34 34 33 26 10 7 7 7 7 8 8 8 8 8 8 8
30 35 40 64 48 50 37 28 28 27 27 34 36 30 42 49 52 44 43 39 39 36 37 35 34 34 34 32 32 32 33 32 32 32 34 35 36 34 29 15 7 7 8 8 9 9 9 10 10
32 35 39 52 48 40 32 30 32 29 31 37 39 44 39 56 56 43 42 41 39 38 38 36 39 39 36 34 36 36 36 36 35 34 31 31 34 36 35 34 32 28 22 15 11 8 8 8 8
33 39 56 47 34 40 36 30 33 32 35 38 37 42 49 46 49 48 42 40 39 38 38 41 44 41 38 37 36 36 37 37 37 38 36 30 28 33 34 29 23 23 27 28 26 22 20 19 20
34 33 57 56 44 38 33 29 32 35 37 36 38 30 54 50 50 48 45 43 43 44 43 44 44 42 40 38 36 36 36 38 39 39 40 39 32 29 31 32 23 18 17 17 18 20 21 20 20
35 47 49 49 42 34 30 29 34 37 39 38 37 37 42 45 41 50 46 44 45 44 43 44 43 43 43 41 39 37 37 39 41 41 41 42 41 35 32 31 30 24 22 22 23 23 24 25 26
33 64 64 52 42 36 29 27 30 34 38 37 36 37 45 61 46 44 49 47 44 42 41 42 43 44 44 43 42 41 40 41 41 42 42 42 42 41 37 34 32 31 27 24 26 28 28 28 29
33 76 70 58 47 40 31 28 36 38 36 38 38 38 44 51 49 44 46 48 46 44 42 41 41 44 45 44 43 42 42 42 42 42 43 42 42 41 42 39 37 36 34 31 27 27 29 30 30
46 58 65 46 43 41 35 33 36 41 40 37 42 40 42 44 46 43 39 41 47 47 46 44 42 42 42 44 44 44 43 42 43 43 43 42 40 40 44 43 42 40 39 36 34 31 28 30 31
42 40 43 32 46 43 41 43 45 47 46 44 38 44 47 36 41 41 38 38 38 39 44 48 48 47 47 44 44 44 44 43 42 44 45 44 43 42 41 41 42 42 42 40 38 35 34 34 32
70 78 44 46 56 59 49 45 54 53 43 46 47 44 47 49 42 37 38 37 40 39 39 39 41 45 45 47 46 44 44 44 43 43 45 46 44 46 44 42 42 42 40 38 40 37 34 33 35
84 75 64 62 62 76 72 58 46 51 60 25 39 47 53 59 54 44 44 44 49 90 43 37 46 49 49 47 46 44 43 44 45 44 46 48 47 47 46 45 44 41 40 38 38 35 33 36 36
86 86 76 60 74 64 65 48 43 31 17 31 28 50 49 54 59 45 50 47 47 67 92 39 42 45 50 50 50 47 45 46 46 48 51 51 52 51 49 49 48 45 41 37 36 33 34 39 36
90 80 74 50 42 59 46 50 38 21 22 23 24 22 29 29 37 43 42 43 46 51 82 61 41 46 45 50 51 51 50 52 49 49 49 50 49 50 49 49 53 57 48 39 35 33 37 37 33
80 74 78 37 42 44 68 58 42 49 42 24 20 19 18 17 18 20 26 36 44 47 51 64 50 43 46 44 44 50 52 50 51 52 53 54 53 52 52 53 52 54 58 41 35 36 37 34 30
86 72 65 56 57 58 66 62 48 58 52 52 42 29 24 20 18 18 18 27 41 47 46 51 55 46 45 44 41 46 54 52 47 50 52 51 52 50 52 54 54 48 46 42 38 38 35 31 34
65 68 57 53 60 58 58 69 52 50 47 54 42 35 33 27 20 18 18 19 33 46 49 50 58 50 46 50 46 45 50 54 49 50 50 46 44 50 55 58 55 59 55 60 53 37 34 35 36
72 67 63 53 55 58 59 58 38 29 30 22 23 23 20 19 19 22 23 21 25 43 58 67 53 55 53 54 51 46 48 55 53 50 46 43 48 59 63 59 65 66 71 78 60 39 34 41 40
73 76 73 63 56 61 55 32 23 14 12 13 12 12 12 13 17 19 23 23 26 25 44 61 73 62 48 51 52 53 58 58 55 53 48 44 48 61 66 66 70 75 75 79 62 41 39 44 44
77 81 75 67 66 59 54 30 17 28 18 15 13 14 17 17 18 19 19 21 24 23 26 44 61 68 67 49 54 56 57 55 52 54 49 44 51 56 68 70 81 88 86 86 89 70 44 48 49
81 74 75 75 78 70 70 79 19 16 17 23 16 14 14 16 19 20 23 27 32 28 26 26 45 60 64 63 60 57 55 54 53 58 53 52 52 55 63 71 73 91 87 88 77 46 49 51 53
82 83 74 86 86 89 62 70 24 23 22 23 27 30 16 16 12 10 19 26 34 41 44 32 32 34 44 56 60 61 60 57 56 57 53 52 54 55 63 74 82 89 93 96 69 48 53 55 59
90 85 78 87 90 94 61 57 37 26 25 24 23 23 23 9 11 16 18 17 20 28 39 41 43 39 44 50 44 57 63 61 58 56 51 52 52 59 62 77 90 100 100 87 85 54 56 59 62
96 94 90 99 99 90 41 63 44 23 25 22 23 23 27 24 23 22 27 26 20 19 22 31 36 48 53 63 44 42 62 65 63 56 54 54 51 53 62 85 95 100 89 96 73 54 60 62 64
90 87 81 85 86 68 51 45 36 28 27 27 31 32 34 36 36 38 34 26 29 22 14 27 40 37 58 48 48 44 42 60 62 56 57 53 50 58 77 95 99 99 99 86 60 58 62 65 66
98 98 79 86 65 74 51 33 30 29 29 33 33 37 40 34 33 33 29 27 42 36 25 25 36 42 38 40 55 57 56 51 46 53 58 52 52 66 83 99 100 100 96 95 65 61 66 68 68
88 81 92 86 94 85 49 38 34 36 39 41 42 42 42 44 44 40 32 31 38 34 30 34 34 42 32 36 52 62 74 61 52 61 56 53 61 78 96 92 90 98 95 87 62 65 69 70 70
96 93 88 82 78 90 86 48 38 41 42 42 43 50 52 49 55 55 47 33 47 44 66 44 47 41 42 33 43 63 68 57 66 59 58 57 81 96 100 98 100 100 84 71 64 68 71 73 72
98 79 94 84 73 79 86 73 52 45 48 51 58 63 62 60 60 64 69 49 55 42 57 71 51 59 68 26 51 73 72 72 65 61 57 76 86 92 84 89 96 90 86 65 69 72 74 75 76